Time,TemperatureF,DewpointF,PressureIn,WindDirection,WindDirectionDegrees,WindSpeedMPH,WindSpeedGustMPH,Humidity,HourlyPrecipIn,Conditions,Clouds,dailyrainin,SoftwareType,DateUTC
2013-12-30 00:01:00,35.7,33.1,29.60,NNW,327,4.0,4.0,90,0.00,,,1.28,Wunderground v.1.15,2013-12-30 05:01:00,
2013-12-30 00:02:00,35.6,33.0,29.60,West,271,2.0,4.0,90,0.00,,,1.28,Wunderground v.1.15,2013-12-30 05:02:00,
2013-12-30 00:05:00,35.7,33.1,29.60,NW,315,3.0,4.0,90,0.00,,,0.00,Wunderground v.1.15,2013-12-30 05:05:00,
2013-12-30 00:07:00,35.6,33.0,29.61,WNW,288,2.0,4.0,90,0.00,,,0.00,Wunderground v.1.15,2013-12-30 05:07:00,
2013-12-30 00:08:00,35.6,33.0,29.61,WNW,298,1.0,4.0,90,0.00,,,0.00,Wunderground v.1.15,2013-12-30 05:08:00,
2013-12-30 00:11:00,35.6,33.0,29.62,WNW,294,2.0,3.0,90,0.00,,,0.00,Wunderground v.1.15,2013-12-30 05:11:00,
2013-12-30 00:13:00,35.6,33.0,29.62,West,271,6.0,6.0,90,0.00,,,0.00,Wunderground v.1.15,2013-12-30 05:13:00,
2013-12-30 00:15:00,35.6,33.0,29.62,NW,306,4.0,7.0,90,0.00,,,0.00,Wunderground v.1.15,2013-12-30 05:15:00,
2013-12-30 00:16:00,35.6,33.0,29.62,NW,311,1.0,7.0,90,0.00,,,0.00,Wunderground v.1.15,2013-12-30 05:16:00,
2013-12-30 00:18:00,35.7,33.1,29.62,WNW,303,1.0,9.0,90,0.00,,,0.00,Wunderground v.1.15,2013-12-30 05:18:00,
2013-12-30 00:19:00,35.7,33.1,29.62,NW,306,3.0,9.0,90,0.00,,,0.00,Wunderground v.1.15,2013-12-30 05:19:00,
2013-12-30 00:21:00,35.7,33.1,29.62,WNW,293,1.0,4.0,90,0.00,,,0.00,Wunderground v.1.15,2013-12-30 05:21:00,
2013-12-30 00:22:00,35.6,33.0,29.62,NNW,327,0.0,4.0,90,0.00,,,0.00,Wunderground v.1.15,2013-12-30 05:22:00,
2013-12-30 00:23:00,35.7,33.1,29.62,WNW,290,5.0,5.0,90,0.00,,,0.00,Wunderground v.1.15,2013-12-30 05:23:00,
2013-12-30 00:28:00,35.6,33.0,29.62,NW,321,3.0,5.0,90,0.00,,,0.00,Wunderground v.1.15,2013-12-30 05:28:00,
2013-12-30 00:29:00,35.6,33.0,29.62,WNW,301,0.0,5.0,90,0.00,,,0.00,Wunderground v.1.15,2013-12-30 05:29:00,
2013-12-30 00:30:00,35.6,33.0,29.62,WNW,301,1.0,3.0,90,0.00,,,0.00,Wunderground v.1.15,2013-12-30 05:30:00,
2013-12-30 00:34:00,35.5,32.9,29.63,NNW,327,3.0,4.0,90,0.00,,,0.00,Wunderground v.1.15,2013-12-30 05:34:00,
2013-12-30 00:36:00,35.4,32.8,29.63,NW,318,1.0,5.0,90,0.00,,,0.00,Wunderground v.1.15,2013-12-30 05:36:00,
2013-12-30 00:37:00,35.4,32.8,29.63,NW,309,1.0,5.0,90,0.00,,,0.00,Wunderground v.1.15,2013-12-30 05:37:00,
2013-12-30 00:39:00,35.3,32.7,29.63,WSW,248,3.0,7.0,90,0.00,,,0.00,Wunderground v.1.15,2013-12-30 05:39:00,
2013-12-30 00:41:00,35.3,32.7,29.64,NW,315,5.0,5.0,90,0.00,,,0.00,Wunderground v.1.15,2013-12-30 05:41:00,
2013-12-30 00:42:00,35.3,32.7,29.64,West,273,3.0,5.0,90,0.00,,,0.00,Wunderground v.1.15,2013-12-30 05:42:00,
2013-12-30 00:43:00,35.3,32.7,29.65,West,275,3.0,5.0,90,0.00,,,0.00,Wunderground v.1.15,2013-12-30 05:43:00,
2013-12-30 00:47:00,35.3,32.7,29.65,West,267,3.0,5.0,90,0.00,,,0.00,Wunderground v.1.15,2013-12-30 05:47:00,
2013-12-30 00:49:00,35.3,32.7,29.65,West,277,1.0,5.0,90,0.00,,,0.00,Wunderground v.1.15,2013-12-30 05:49:00,
2013-12-30 00:50:00,35.3,32.7,29.65,WNW,288,5.0,5.0,90,0.00,,,0.00,Wunderground v.1.15,2013-12-30 05:50:00,
2013-12-30 00:52:00,35.4,32.8,29.66,West,266,0.0,5.0,90,0.00,,,0.00,Wunderground v.1.15,2013-12-30 05:52:00,
2013-12-30 00:53:00,35.4,32.8,29.66,NNW,339,3.0,5.0,90,0.00,,,0.00,Wunderground v.1.15,2013-12-30 05:53:00,
2013-12-30 00:55:00,35.3,32.7,29.66,NNW,341,2.0,5.0,90,0.00,,,0.00,Wunderground v.1.15,2013-12-30 05:55:00,
2013-12-30 00:56:00,35.3,32.7,29.66,NW,308,4.0,5.0,90,0.00,,,0.00,Wunderground v.1.15,2013-12-30 05:56:00,
2013-12-30 00:57:00,35.3,32.7,29.66,NNW,331,2.0,5.0,90,0.00,,,0.00,Wunderground v.1.15,2013-12-30 05:57:00,
2013-12-30 01:01:00,35.3,32.7,29.66,WNW,301,2.0,2.0,90,0.00,,,0.00,Wunderground v.1.15,2013-12-30 06:01:00,
2013-12-30 01:02:00,35.2,32.6,29.66,NW,311,1.0,2.0,90,0.00,,,0.00,Wunderground v.1.15,2013-12-30 06:02:00,
2013-12-30 01:04:00,35.2,32.6,29.66,NW,311,1.0,2.0,90,0.00,,,0.00,Wunderground v.1.15,2013-12-30 06:04:00,
2013-12-30 01:05:00,35.2,32.6,29.66,NW,311,1.0,2.0,90,0.00,,,0.00,Wunderground v.1.15,2013-12-30 06:05:00,
2013-12-30 01:06:00,35.2,32.6,29.66,NW,311,0.0,2.0,90,0.00,,,0.00,Wunderground v.1.15,2013-12-30 06:06:00,
2013-12-30 01:08:00,35.1,32.5,29.67,NW,311,1.0,2.0,90,0.00,,,0.00,Wunderground v.1.15,2013-12-30 06:08:00,
2013-12-30 01:09:00,35.1,32.5,29.67,NW,311,2.0,2.0,90,0.00,,,0.00,Wunderground v.1.15,2013-12-30 06:09:00,
2013-12-30 01:13:00,34.9,32.3,29.68,NW,311,1.0,2.0,90,0.00,,,0.00,Wunderground v.1.15,2013-12-30 06:13:00,
2013-12-30 01:14:00,34.9,32.3,29.67,NW,311,1.0,2.0,90,0.00,,,0.00,Wunderground v.1.15,2013-12-30 06:14:00,
2013-12-30 01:17:00,34.8,32.2,29.68,NW,311,0.0,2.0,90,0.00,,,0.00,Wunderground v.1.15,2013-12-30 06:17:00,
2013-12-30 01:18:00,34.8,32.2,29.68,NW,311,0.0,2.0,90,0.00,,,0.00,Wunderground v.1.15,2013-12-30 06:18:00,
2013-12-30 01:19:00,34.8,32.2,29.68,WNW,300,3.0,3.0,90,0.00,,,0.00,Wunderground v.1.15,2013-12-30 06:19:00,
2013-12-30 01:20:00,34.7,32.1,29.68,West,276,4.0,4.0,90,0.00,,,0.00,Wunderground v.1.15,2013-12-30 06:20:00,
2013-12-30 01:23:00,34.7,32.1,29.68,West,278,0.0,4.0,90,0.00,,,0.00,Wunderground v.1.15,2013-12-30 06:23:00,
2013-12-30 01:24:00,34.6,32.0,29.68,WNW,296,4.0,4.0,90,0.00,,,0.00,Wunderground v.1.15,2013-12-30 06:24:00,
2013-12-30 01:25:00,34.6,32.0,29.69,WNW,292,2.0,4.0,90,0.00,,,0.00,Wunderground v.1.15,2013-12-30 06:25:00,
2013-12-30 01:26:00,34.6,32.0,29.69,WNW,294,1.0,4.0,90,0.00,,,0.00,Wunderground v.1.15,2013-12-30 06:26:00,
2013-12-30 01:27:00,34.6,32.0,29.69,WNW,294,0.0,4.0,90,0.00,,,0.00,Wunderground v.1.15,2013-12-30 06:27:00,
2013-12-30 01:28:00,34.5,31.9,29.69,WNW,298,2.0,4.0,90,0.00,,,0.00,Wunderground v.1.15,2013-12-30 06:28:00,
2013-12-30 01:30:00,34.5,31.9,29.69,West,275,4.0,4.0,90,0.00,,,0.00,Wunderground v.1.15,2013-12-30 06:30:00,
2013-12-30 01:33:00,34.5,31.9,29.69,WSW,250,0.0,4.0,90,0.00,,,0.00,Wunderground v.1.15,2013-12-30 06:33:00,
2013-12-30 01:35:00,34.5,31.9,29.69,West,271,1.0,4.0,90,0.00,,,0.00,Wunderground v.1.15,2013-12-30 06:35:00,
2013-12-30 01:36:00,34.5,31.9,29.69,NW,313,0.0,4.0,90,0.00,,,0.00,Wunderground v.1.15,2013-12-30 06:36:00,
2013-12-30 01:38:00,34.4,31.8,29.69,WNW,302,5.0,5.0,90,0.00,,,0.00,Wunderground v.1.15,2013-12-30 06:38:00,
2013-12-30 01:40:00,34.4,31.8,29.69,WNW,287,2.0,2.0,90,0.00,,,0.00,Wunderground v.1.15,2013-12-30 06:40:00,
2013-12-30 01:41:00,34.4,31.8,29.69,WNW,287,2.0,2.0,90,0.00,,,0.00,Wunderground v.1.15,2013-12-30 06:41:00,
2013-12-30 01:44:00,34.4,31.8,29.70,WNW,287,2.0,3.0,90,0.00,,,0.00,Wunderground v.1.15,2013-12-30 06:44:00,
2013-12-30 01:45:00,34.4,31.8,29.70,WNW,303,3.0,3.0,90,0.00,,,0.00,Wunderground v.1.15,2013-12-30 06:45:00,
2013-12-30 01:47:00,34.4,31.8,29.70,WNW,303,0.0,3.0,90,0.00,,,0.00,Wunderground v.1.15,2013-12-30 06:47:00,
2013-12-30 01:50:00,34.3,31.7,29.70,WNW,303,0.0,1.0,90,0.00,,,0.00,Wunderground v.1.15,2013-12-30 06:50:00,
2013-12-30 01:52:00,34.3,31.7,29.71,WNW,303,0.0,1.0,90,0.00,,,0.00,Wunderground v.1.15,2013-12-30 06:52:00,
2013-12-30 01:53:00,34.2,31.6,29.71,WNW,303,2.0,2.0,90,0.00,,,0.00,Wunderground v.1.15,2013-12-30 06:53:00,
2013-12-30 01:55:00,34.2,31.6,29.70,WNW,303,0.0,2.0,90,0.00,,,0.00,Wunderground v.1.15,2013-12-30 06:55:00,
2013-12-30 01:57:00,34.2,31.6,29.70,WNW,303,2.0,2.0,90,0.00,,,0.00,Wunderground v.1.15,2013-12-30 06:57:00,
2013-12-30 01:58:00,34.1,31.5,29.70,WNW,303,1.0,2.0,90,0.00,,,0.00,Wunderground v.1.15,2013-12-30 06:58:00,
2013-12-30 01:59:00,34.1,31.5,29.70,WNW,303,2.0,2.0,90,0.00,,,0.00,Wunderground v.1.15,2013-12-30 06:59:00,
2013-12-30 02:00:00,34.1,31.5,29.71,WNW,303,0.0,1.0,90,0.00,,,0.00,Wunderground v.1.15,2013-12-30 07:00:00,
2013-12-30 02:01:00,34.1,31.5,29.70,WNW,303,0.0,1.0,90,0.00,,,0.00,Wunderground v.1.15,2013-12-30 07:01:00,
2013-12-30 02:02:00,34.1,31.5,29.70,WNW,303,0.0,1.0,90,0.00,,,0.00,Wunderground v.1.15,2013-12-30 07:02:00,
2013-12-30 02:03:00,34.0,31.4,29.70,WNW,303,1.0,1.0,90,0.00,,,0.00,Wunderground v.1.15,2013-12-30 07:03:00,
2013-12-30 02:04:00,34.0,31.4,29.70,WNW,303,0.0,2.0,90,0.00,,,0.00,Wunderground v.1.15,2013-12-30 07:04:00,
2013-12-30 02:05:00,34.0,31.4,29.71,WNW,303,2.0,2.0,90,0.00,,,0.00,Wunderground v.1.15,2013-12-30 07:05:00,
2013-12-30 02:06:00,34.0,31.4,29.71,WNW,303,2.0,3.0,90,0.00,,,0.00,Wunderground v.1.15,2013-12-30 07:06:00,
2013-12-30 02:07:00,34.0,31.4,29.71,WNW,303,1.0,3.0,90,0.00,,,0.00,Wunderground v.1.15,2013-12-30 07:07:00,
2013-12-30 02:09:00,33.9,31.3,29.71,WNW,303,1.0,3.0,90,0.00,,,0.00,Wunderground v.1.15,2013-12-30 07:09:00,
2013-12-30 02:11:00,33.9,31.3,29.71,WNW,303,2.0,2.0,90,0.00,,,0.00,Wunderground v.1.15,2013-12-30 07:11:00,
2013-12-30 02:12:00,33.9,31.3,29.71,WNW,303,0.0,2.0,90,0.00,,,0.00,Wunderground v.1.15,2013-12-30 07:12:00,
2013-12-30 02:14:00,33.8,31.2,29.71,WNW,303,1.0,2.0,90,0.00,,,0.00,Wunderground v.1.15,2013-12-30 07:14:00,
2013-12-30 02:15:00,33.9,31.3,29.70,WNW,303,1.0,2.0,90,0.00,,,0.00,Wunderground v.1.15,2013-12-30 07:15:00,
2013-12-30 02:16:00,33.8,31.2,29.71,WNW,303,0.0,2.0,90,0.00,,,0.00,Wunderground v.1.15,2013-12-30 07:16:00,
2013-12-30 02:17:00,33.9,31.3,29.71,WNW,303,3.0,3.0,90,0.00,,,0.00,Wunderground v.1.15,2013-12-30 07:17:00,
2013-12-30 02:18:00,33.9,31.3,29.71,WNW,303,0.0,3.0,90,0.00,,,0.00,Wunderground v.1.15,2013-12-30 07:18:00,
2013-12-30 02:19:00,33.9,31.3,29.71,WNW,303,0.0,3.0,90,0.00,,,0.00,Wunderground v.1.15,2013-12-30 07:19:00,
2013-12-30 02:20:00,33.9,31.3,29.71,WNW,303,2.0,3.0,90,0.00,,,0.00,Wunderground v.1.15,2013-12-30 07:20:00,
2013-12-30 02:21:00,33.9,31.3,29.71,WNW,303,0.0,3.0,90,0.00,,,0.00,Wunderground v.1.15,2013-12-30 07:21:00,
2013-12-30 02:23:00,33.8,31.2,29.71,WNW,303,3.0,3.0,90,0.00,,,0.00,Wunderground v.1.15,2013-12-30 07:23:00,
2013-12-30 02:24:00,33.9,31.3,29.71,West,271,0.0,4.0,90,0.00,,,0.00,Wunderground v.1.15,2013-12-30 07:24:00,
2013-12-30 02:25:00,33.9,31.3,29.71,West,271,0.0,4.0,90,0.00,,,0.00,Wunderground v.1.15,2013-12-30 07:25:00,
2013-12-30 02:26:00,33.9,31.3,29.72,West,271,2.0,4.0,90,0.00,,,0.00,Wunderground v.1.15,2013-12-30 07:26:00,
2013-12-30 02:28:00,33.9,31.3,29.72,West,271,0.0,4.0,90,0.00,,,0.00,Wunderground v.1.15,2013-12-30 07:28:00,
2013-12-30 02:29:00,33.9,31.3,29.72,West,271,0.0,4.0,90,0.00,,,0.00,Wunderground v.1.15,2013-12-30 07:29:00,
2013-12-30 02:30:00,33.9,31.3,29.72,NNW,340,4.0,4.0,90,0.00,,,0.00,Wunderground v.1.15,2013-12-30 07:30:00,
2013-12-30 02:31:00,33.9,31.3,29.72,NW,314,5.0,6.0,90,0.00,,,0.00,Wunderground v.1.15,2013-12-30 07:31:00,
2013-12-30 02:32:00,34.0,31.4,29.72,NW,315,3.0,7.0,90,0.00,,,0.00,Wunderground v.1.15,2013-12-30 07:32:00,
2013-12-30 02:34:00,34.0,31.4,29.72,NW,321,2.0,7.0,90,0.00,,,0.00,Wunderground v.1.15,2013-12-30 07:34:00,
2013-12-30 02:35:00,34.0,31.4,29.72,WNW,301,3.0,7.0,90,0.00,,,0.00,Wunderground v.1.15,2013-12-30 07:35:00,
2013-12-30 02:36:00,33.9,31.3,29.72,NW,311,1.0,7.0,90,0.00,,,0.00,Wunderground v.1.15,2013-12-30 07:36:00,
2013-12-30 02:37:00,33.9,31.3,29.72,NW,311,2.0,7.0,90,0.00,,,0.00,Wunderground v.1.15,2013-12-30 07:37:00,
2013-12-30 02:39:00,33.9,31.3,29.72,NW,311,1.0,7.0,90,0.00,,,0.00,Wunderground v.1.15,2013-12-30 07:39:00,
2013-12-30 02:40:00,33.8,31.2,29.72,NW,311,1.0,2.0,90,0.00,,,0.00,Wunderground v.1.15,2013-12-30 07:40:00,
2013-12-30 02:42:00,33.8,31.2,29.72,WNW,290,3.0,3.0,90,0.00,,,0.00,Wunderground v.1.15,2013-12-30 07:42:00,
2013-12-30 02:44:00,33.7,31.1,29.73,WNW,286,0.0,3.0,90,0.00,,,0.00,Wunderground v.1.15,2013-12-30 07:44:00,
2013-12-30 02:45:00,33.7,31.1,29.73,WNW,286,0.0,3.0,90,0.00,,,0.00,Wunderground v.1.15,2013-12-30 07:45:00,
2013-12-30 02:47:00,33.7,31.1,29.73,WNW,286,0.0,3.0,90,0.00,,,0.00,Wunderground v.1.15,2013-12-30 07:47:00,
2013-12-30 02:50:00,33.7,31.1,29.74,WNW,302,1.0,2.0,90,0.00,,,0.00,Wunderground v.1.15,2013-12-30 07:50:00,
2013-12-30 02:51:00,33.7,31.1,29.74,WNW,302,3.0,3.0,90,0.00,,,0.00,Wunderground v.1.15,2013-12-30 07:51:00,
2013-12-30 02:52:00,33.7,31.1,29.73,WNW,303,1.0,3.0,90,0.00,,,0.00,Wunderground v.1.15,2013-12-30 07:52:00,
2013-12-30 02:53:00,33.7,31.1,29.73,WNW,303,2.0,3.0,90,0.00,,,0.00,Wunderground v.1.15,2013-12-30 07:53:00,
2013-12-30 02:55:00,33.7,31.1,29.73,NW,311,0.0,5.0,90,0.00,,,0.00,Wunderground v.1.15,2013-12-30 07:55:00,
2013-12-30 02:56:00,33.7,31.1,29.73,NW,311,1.0,5.0,90,0.00,,,0.00,Wunderground v.1.15,2013-12-30 07:56:00,
2013-12-30 02:57:00,33.7,31.1,29.73,NW,311,0.0,5.0,90,0.00,,,0.00,Wunderground v.1.15,2013-12-30 07:57:00,
2013-12-30 02:58:00,33.7,31.1,29.73,NW,311,0.0,5.0,90,0.00,,,0.00,Wunderground v.1.15,2013-12-30 07:58:00,
2013-12-30 02:59:00,33.7,31.1,29.73,NW,311,0.0,5.0,90,0.00,,,0.00,Wunderground v.1.15,2013-12-30 07:59:00,
2013-12-30 03:00:00,33.7,31.1,29.73,NW,311,0.0,2.0,90,0.00,,,0.00,Wunderground v.1.15,2013-12-30 08:00:00,
2013-12-30 03:02:00,33.7,31.1,29.73,NW,311,0.0,2.0,90,0.00,,,0.00,Wunderground v.1.15,2013-12-30 08:02:00,
2013-12-30 03:03:00,33.7,31.1,29.73,NW,311,0.0,2.0,90,0.00,,,0.00,Wunderground v.1.15,2013-12-30 08:03:00,
2013-12-30 03:04:00,33.7,31.1,29.73,West,272,1.0,4.0,90,0.00,,,0.00,Wunderground v.1.15,2013-12-30 08:04:00,
2013-12-30 03:06:00,33.7,31.1,29.73,West,272,0.0,4.0,90,0.00,,,0.00,Wunderground v.1.15,2013-12-30 08:06:00,
2013-12-30 03:07:00,33.7,31.1,29.74,West,272,0.0,4.0,90,0.00,,,0.00,Wunderground v.1.15,2013-12-30 08:07:00,
2013-12-30 03:08:00,33.7,31.1,29.74,West,272,1.0,4.0,90,0.00,,,0.00,Wunderground v.1.15,2013-12-30 08:08:00,
2013-12-30 03:09:00,33.7,31.1,29.74,West,272,1.0,4.0,90,0.00,,,0.00,Wunderground v.1.15,2013-12-30 08:09:00,
2013-12-30 03:12:00,33.7,31.1,29.74,West,272,0.0,1.0,90,0.00,,,0.00,Wunderground v.1.15,2013-12-30 08:12:00,
2013-12-30 03:13:00,33.7,31.1,29.74,West,272,1.0,1.0,90,0.00,,,0.00,Wunderground v.1.15,2013-12-30 08:13:00,
2013-12-30 03:14:00,33.7,31.1,29.74,West,272,0.0,1.0,90,0.00,,,0.00,Wunderground v.1.15,2013-12-30 08:14:00,
2013-12-30 03:17:00,33.7,31.1,29.74,West,272,0.0,4.0,90,0.00,,,0.00,Wunderground v.1.15,2013-12-30 08:17:00,
2013-12-30 03:18:00,33.7,31.1,29.74,West,272,1.0,4.0,90,0.00,,,0.00,Wunderground v.1.15,2013-12-30 08:18:00,
2013-12-30 03:19:00,33.7,31.1,29.74,West,273,0.0,4.0,90,0.00,,,0.00,Wunderground v.1.15,2013-12-30 08:19:00,
2013-12-30 03:22:00,33.7,31.1,29.75,West,272,0.0,2.0,90,0.00,,,0.00,Wunderground v.1.15,2013-12-30 08:22:00,
2013-12-30 03:23:00,33.6,31.0,29.75,West,273,0.0,2.0,90,0.00,,,0.00,Wunderground v.1.15,2013-12-30 08:23:00,
2013-12-30 03:24:00,33.6,31.0,29.75,West,273,0.0,2.0,90,0.00,,,0.00,Wunderground v.1.15,2013-12-30 08:24:00,
2013-12-30 03:25:00,33.6,31.0,29.75,West,273,0.0,2.0,90,0.00,,,0.00,Wunderground v.1.15,2013-12-30 08:25:00,
2013-12-30 03:27:00,33.5,30.9,29.75,West,273,1.0,2.0,90,0.00,,,0.00,Wunderground v.1.15,2013-12-30 08:27:00,
2013-12-30 03:28:00,33.5,30.9,29.75,West,272,0.0,2.0,90,0.00,,,0.00,Wunderground v.1.15,2013-12-30 08:28:00,
2013-12-30 03:29:00,33.5,30.9,29.75,West,272,0.0,2.0,90,0.00,,,0.00,Wunderground v.1.15,2013-12-30 08:29:00,
2013-12-30 03:31:00,33.5,30.9,29.75,SW,220,3.0,3.0,90,0.00,,,0.00,Wunderground v.1.15,2013-12-30 08:31:00,
2013-12-30 03:32:00,33.5,30.9,29.75,SW,218,1.0,4.0,90,0.00,,,0.00,Wunderground v.1.15,2013-12-30 08:32:00,
2013-12-30 03:33:00,33.5,30.9,29.75,SW,218,0.0,4.0,90,0.00,,,0.00,Wunderground v.1.15,2013-12-30 08:33:00,
2013-12-30 03:34:00,33.5,30.9,29.75,SW,218,0.0,4.0,90,0.00,,,0.00,Wunderground v.1.15,2013-12-30 08:34:00,
2013-12-30 03:36:00,33.6,31.0,29.75,SW,218,1.0,4.0,90,0.00,,,0.00,Wunderground v.1.15,2013-12-30 08:36:00,
2013-12-30 03:37:00,33.5,30.9,29.74,SW,218,1.0,4.0,90,0.00,,,0.00,Wunderground v.1.15,2013-12-30 08:37:00,
2013-12-30 03:39:00,33.5,30.9,29.74,SW,218,0.0,4.0,90,0.00,,,0.00,Wunderground v.1.15,2013-12-30 08:39:00,
2013-12-30 03:41:00,33.4,30.8,29.74,SW,218,0.0,1.0,90,0.00,,,0.00,Wunderground v.1.15,2013-12-30 08:41:00,
2013-12-30 03:44:00,33.4,30.8,29.74,SW,218,0.0,1.0,90,0.00,,,0.00,Wunderground v.1.15,2013-12-30 08:44:00,
2013-12-30 03:46:00,33.3,31.0,29.75,SW,218,0.0,1.0,91,0.00,,,0.00,Wunderground v.1.15,2013-12-30 08:46:00,
2013-12-30 03:49:00,33.2,30.6,29.75,SW,218,0.0,1.0,90,0.00,,,0.00,Wunderground v.1.15,2013-12-30 08:49:00,
2013-12-30 03:50:00,33.2,30.6,29.76,SW,218,1.0,3.0,90,0.00,,,0.00,Wunderground v.1.15,2013-12-30 08:50:00,
2013-12-30 03:51:00,33.1,30.5,29.76,SW,218,0.0,3.0,90,0.00,,,0.00,Wunderground v.1.15,2013-12-30 08:51:00,
2013-12-30 03:54:00,33.1,30.5,29.76,SW,218,0.0,3.0,90,0.00,,,0.00,Wunderground v.1.15,2013-12-30 08:54:00,
2013-12-30 03:55:00,33.1,30.5,29.76,SW,218,0.0,3.0,90,0.00,,,0.00,Wunderground v.1.15,2013-12-30 08:55:00,
2013-12-30 03:56:00,33.1,30.5,29.76,SW,218,0.0,3.0,90,0.00,,,0.00,Wunderground v.1.15,2013-12-30 08:56:00,
2013-12-30 03:59:00,33.0,30.4,29.76,SW,218,1.0,3.0,90,0.00,,,0.00,Wunderground v.1.15,2013-12-30 08:59:00,
2013-12-30 04:00:00,33.0,30.4,29.76,SW,218,1.0,2.0,90,0.00,,,0.00,Wunderground v.1.15,2013-12-30 09:00:00,
2013-12-30 04:01:00,33.1,30.5,29.76,SW,218,2.0,3.0,90,0.00,,,0.00,Wunderground v.1.15,2013-12-30 09:01:00,
2013-12-30 04:04:00,33.0,30.4,29.76,SW,218,1.0,3.0,90,0.00,,,0.00,Wunderground v.1.15,2013-12-30 09:04:00,
2013-12-30 04:05:00,33.0,30.4,29.76,SW,218,1.0,3.0,90,0.00,,,0.00,Wunderground v.1.15,2013-12-30 09:05:00,
2013-12-30 04:06:00,33.0,30.4,29.76,SW,218,2.0,3.0,90,0.00,,,0.00,Wunderground v.1.15,2013-12-30 09:06:00,
2013-12-30 04:09:00,33.0,30.4,29.76,West,269,2.0,5.0,90,0.00,,,0.00,Wunderground v.1.15,2013-12-30 09:09:00,
2013-12-30 04:10:00,33.0,30.4,29.76,WSW,257,2.0,4.0,90,0.00,,,0.00,Wunderground v.1.15,2013-12-30 09:10:00,
2013-12-30 04:11:00,33.0,30.4,29.76,WSW,257,2.0,4.0,90,0.00,,,0.00,Wunderground v.1.15,2013-12-30 09:11:00,
2013-12-30 04:14:00,33.4,30.8,29.77,NNW,329,2.0,7.0,90,0.00,,,0.00,Wunderground v.1.15,2013-12-30 09:14:00,
2013-12-30 04:16:00,33.8,31.2,29.77,WNW,292,1.0,7.0,90,0.00,,,0.00,Wunderground v.1.15,2013-12-30 09:16:00,
2013-12-30 04:17:00,34.1,31.5,29.77,West,273,2.0,7.0,90,0.00,,,0.00,Wunderground v.1.15,2013-12-30 09:17:00,
2013-12-30 04:19:00,34.5,31.9,29.76,NW,326,3.0,7.0,90,0.00,,,0.00,Wunderground v.1.15,2013-12-30 09:19:00,
2013-12-30 04:21:00,34.9,32.3,29.76,West,259,6.0,6.0,90,0.00,,,0.00,Wunderground v.1.15,2013-12-30 09:21:00,
2013-12-30 04:22:00,34.8,32.2,29.76,WNW,297,5.0,6.0,90,0.00,,,0.00,Wunderground v.1.15,2013-12-30 09:22:00,
2013-12-30 04:25:00,34.5,31.9,29.76,WNW,286,3.0,8.0,90,0.00,,,0.00,Wunderground v.1.15,2013-12-30 09:25:00,
2013-12-30 04:26:00,34.4,31.8,29.76,WNW,286,0.0,8.0,90,0.00,,,0.00,Wunderground v.1.15,2013-12-30 09:26:00,
2013-12-30 04:27:00,34.7,32.1,29.76,WNW,288,1.0,8.0,90,0.00,,,0.00,Wunderground v.1.15,2013-12-30 09:27:00,
2013-12-30 04:30:00,35.0,32.4,29.77,WNW,288,2.0,3.0,90,0.00,,,0.00,Wunderground v.1.15,2013-12-30 09:30:00,
2013-12-30 04:31:00,35.2,32.6,29.77,WNW,288,1.0,3.0,90,0.00,,,0.00,Wunderground v.1.15,2013-12-30 09:31:00,
2013-12-30 04:32:00,35.0,32.4,29.77,WNW,288,1.0,3.0,90,0.00,,,0.00,Wunderground v.1.15,2013-12-30 09:32:00,
2013-12-30 04:33:00,35.2,32.6,29.77,WNW,288,0.0,3.0,90,0.00,,,0.00,Wunderground v.1.15,2013-12-30 09:33:00,
2013-12-30 04:35:00,35.7,32.8,29.77,WNW,288,1.0,3.0,89,0.00,,,0.00,Wunderground v.1.15,2013-12-30 09:35:00,
2013-12-30 04:36:00,35.7,32.8,29.77,WSW,243,2.0,5.0,89,0.00,,,0.00,Wunderground v.1.15,2013-12-30 09:36:00,
2013-12-30 04:37:00,35.2,32.6,29.77,WSW,243,2.0,5.0,90,0.00,,,0.00,Wunderground v.1.15,2013-12-30 09:37:00,
2013-12-30 04:38:00,35.0,32.4,29.77,WNW,284,3.0,5.0,90,0.00,,,0.00,Wunderground v.1.15,2013-12-30 09:38:00,
2013-12-30 04:40:00,34.9,32.3,29.77,West,261,0.0,2.0,90,0.00,,,0.00,Wunderground v.1.15,2013-12-30 09:40:00,
2013-12-30 04:41:00,35.0,32.4,29.77,WSW,246,1.0,5.0,90,0.00,,,0.00,Wunderground v.1.15,2013-12-30 09:41:00,
2013-12-30 04:42:00,34.8,32.2,29.78,WSW,246,0.0,5.0,90,0.00,,,0.00,Wunderground v.1.15,2013-12-30 09:42:00,
2013-12-30 04:43:00,34.7,32.1,29.78,WSW,246,1.0,5.0,90,0.00,,,0.00,Wunderground v.1.15,2013-12-30 09:43:00,
2013-12-30 04:45:00,34.5,31.9,29.78,WSW,246,1.0,5.0,90,0.00,,,0.00,Wunderground v.1.15,2013-12-30 09:45:00,
2013-12-30 04:46:00,34.4,31.8,29.78,WSW,246,1.0,5.0,90,0.00,,,0.00,Wunderground v.1.15,2013-12-30 09:46:00,
2013-12-30 04:47:00,34.5,31.9,29.78,WSW,250,1.0,5.0,90,0.00,,,0.00,Wunderground v.1.15,2013-12-30 09:47:00,
2013-12-30 04:48:00,34.7,32.1,29.78,WSW,250,0.0,5.0,90,0.00,,,0.00,Wunderground v.1.15,2013-12-30 09:48:00,
2013-12-30 04:50:00,35.4,32.8,29.77,WSW,251,0.0,1.0,90,0.00,,,0.00,Wunderground v.1.15,2013-12-30 09:50:00,
2013-12-30 04:52:00,36.6,33.7,29.77,WSW,250,1.0,3.0,89,0.00,,,0.00,Wunderground v.1.15,2013-12-30 09:52:00,
2013-12-30 04:53:00,36.9,34.0,29.77,WSW,250,1.0,3.0,89,0.00,,,0.00,Wunderground v.1.15,2013-12-30 09:53:00,
2013-12-30 04:54:00,37.0,34.1,29.77,WSW,251,1.0,4.0,89,0.00,,,0.00,Wunderground v.1.15,2013-12-30 09:54:00,
2013-12-30 04:55:00,37.1,34.2,29.78,WSW,251,0.0,4.0,89,0.00,,,0.00,Wunderground v.1.15,2013-12-30 09:55:00,
2013-12-30 04:57:00,36.5,33.6,29.78,WSW,251,1.0,4.0,89,0.00,,,0.00,Wunderground v.1.15,2013-12-30 09:57:00,
2013-12-30 04:58:00,36.1,33.2,29.78,WSW,251,1.0,4.0,89,0.00,,,0.00,Wunderground v.1.15,2013-12-30 09:58:00,
2013-12-30 04:59:00,35.7,32.8,29.78,WSW,251,2.0,4.0,89,0.00,,,0.00,Wunderground v.1.15,2013-12-30 09:59:00,
2013-12-30 05:00:00,35.0,32.1,29.78,WSW,251,0.0,1.0,89,0.00,,,0.00,Wunderground v.1.15,2013-12-30 10:00:00,
2013-12-30 05:02:00,34.5,31.9,29.78,WSW,251,0.0,2.0,90,0.00,,,0.00,Wunderground v.1.15,2013-12-30 10:02:00,
2013-12-30 05:03:00,34.2,31.6,29.78,WSW,251,1.0,2.0,90,0.00,,,0.00,Wunderground v.1.15,2013-12-30 10:03:00,
2013-12-30 05:04:00,34.1,31.5,29.78,WSW,251,0.0,2.0,90,0.00,,,0.00,Wunderground v.1.15,2013-12-30 10:04:00,
2013-12-30 05:05:00,33.8,31.2,29.78,WSW,251,1.0,2.0,90,0.00,,,0.00,Wunderground v.1.15,2013-12-30 10:05:00,
2013-12-30 05:07:00,33.4,30.8,29.78,WSW,251,1.0,2.0,90,0.00,,,0.00,Wunderground v.1.15,2013-12-30 10:07:00,
2013-12-30 05:08:00,33.3,30.7,29.78,WSW,251,2.0,3.0,90,0.00,,,0.00,Wunderground v.1.15,2013-12-30 10:08:00,
2013-12-30 05:09:00,33.2,30.6,29.78,WSW,251,2.0,3.0,90,0.00,,,0.00,Wunderground v.1.15,2013-12-30 10:09:00,
2013-12-30 05:10:00,33.1,30.5,29.78,WSW,251,1.0,1.0,90,0.00,,,0.00,Wunderground v.1.15,2013-12-30 10:10:00,
2013-12-30 05:12:00,32.9,30.3,29.78,WSW,251,2.0,4.0,90,0.00,,,0.00,Wunderground v.1.15,2013-12-30 10:12:00,
2013-12-30 05:14:00,32.8,30.2,29.78,WSW,251,0.0,4.0,90,0.00,,,0.00,Wunderground v.1.15,2013-12-30 10:14:00,
2013-12-30 05:15:00,32.8,30.2,29.78,WSW,251,0.0,4.0,90,0.00,,,0.00,Wunderground v.1.15,2013-12-30 10:15:00,
2013-12-30 05:17:00,32.7,30.1,29.78,WSW,250,4.0,4.0,90,0.00,,,0.00,Wunderground v.1.15,2013-12-30 10:17:00,
2013-12-30 05:19:00,32.8,30.2,29.78,WSW,250,2.0,4.0,90,0.00,,,0.00,Wunderground v.1.15,2013-12-30 10:19:00,
2013-12-30 05:20:00,32.8,30.2,29.78,WSW,250,1.0,2.0,90,0.00,,,0.00,Wunderground v.1.15,2013-12-30 10:20:00,
2013-12-30 05:22:00,32.8,30.2,29.78,WSW,251,2.0,4.0,90,0.00,,,0.00,Wunderground v.1.15,2013-12-30 10:22:00,
2013-12-30 05:24:00,32.8,30.2,29.78,WSW,251,0.0,4.0,90,0.00,,,0.00,Wunderground v.1.15,2013-12-30 10:24:00,
2013-12-30 05:25:00,32.8,30.2,29.78,WSW,251,2.0,4.0,90,0.00,,,0.00,Wunderground v.1.15,2013-12-30 10:25:00,
2013-12-30 05:26:00,32.8,30.2,29.78,WSW,251,1.0,4.0,90,0.00,,,0.00,Wunderground v.1.15,2013-12-30 10:26:00,
2013-12-30 05:27:00,32.8,30.2,29.79,WSW,250,2.0,4.0,90,0.00,,,0.00,Wunderground v.1.15,2013-12-30 10:27:00,
2013-12-30 05:29:00,32.8,30.2,29.79,WSW,251,0.0,4.0,90,0.00,,,0.00,Wunderground v.1.15,2013-12-30 10:29:00,
2013-12-30 05:30:00,32.8,30.2,29.79,WSW,251,2.0,2.0,90,0.00,,,0.00,Wunderground v.1.15,2013-12-30 10:30:00,
2013-12-30 05:31:00,32.8,30.2,29.79,WSW,251,0.0,2.0,90,0.00,,,0.00,Wunderground v.1.15,2013-12-30 10:31:00,
2013-12-30 05:32:00,32.8,30.2,29.79,WSW,250,2.0,2.0,90,0.00,,,0.00,Wunderground v.1.15,2013-12-30 10:32:00,
2013-12-30 05:33:00,32.8,30.2,29.79,WSW,250,2.0,4.0,90,0.00,,,0.00,Wunderground v.1.15,2013-12-30 10:33:00,
2013-12-30 05:35:00,32.9,30.3,29.79,WSW,251,2.0,4.0,90,0.00,,,0.00,Wunderground v.1.15,2013-12-30 10:35:00,
2013-12-30 05:36:00,33.0,30.4,29.79,WSW,250,1.0,4.0,90,0.00,,,0.00,Wunderground v.1.15,2013-12-30 10:36:00,
2013-12-30 05:37:00,33.0,30.4,29.79,WSW,250,2.0,4.0,90,0.00,,,0.00,Wunderground v.1.15,2013-12-30 10:37:00,
2013-12-30 05:38:00,33.0,30.4,29.79,WSW,251,2.0,4.0,90,0.00,,,0.00,Wunderground v.1.15,2013-12-30 10:38:00,
2013-12-30 05:40:00,33.0,30.4,29.80,WSW,250,0.0,1.0,90,0.00,,,0.00,Wunderground v.1.15,2013-12-30 10:40:00,
2013-12-30 05:41:00,33.1,30.5,29.80,WSW,250,2.0,3.0,90,0.00,,,0.00,Wunderground v.1.15,2013-12-30 10:41:00,
2013-12-30 05:42:00,33.1,30.5,29.80,WSW,251,0.0,3.0,90,0.00,,,0.00,Wunderground v.1.15,2013-12-30 10:42:00,
2013-12-30 05:43:00,33.1,30.5,29.80,WSW,251,0.0,3.0,90,0.00,,,0.00,Wunderground v.1.15,2013-12-30 10:43:00,
2013-12-30 05:45:00,33.1,30.5,29.80,WSW,250,0.0,3.0,90,0.00,,,0.00,Wunderground v.1.15,2013-12-30 10:45:00,
2013-12-30 05:46:00,33.2,30.6,29.80,WSW,251,2.0,3.0,90,0.00,,,0.00,Wunderground v.1.15,2013-12-30 10:46:00,
2013-12-30 05:47:00,33.2,30.6,29.80,WSW,251,0.0,3.0,90,0.00,,,0.00,Wunderground v.1.15,2013-12-30 10:47:00,
2013-12-30 05:48:00,33.3,30.7,29.80,WSW,250,0.0,3.0,90,0.00,,,0.00,Wunderground v.1.15,2013-12-30 10:48:00,
2013-12-30 05:50:00,33.4,30.8,29.81,WSW,250,0.0,3.0,90,0.00,,,0.00,Wunderground v.1.15,2013-12-30 10:50:00,
2013-12-30 05:51:00,33.5,30.9,29.81,WSW,250,3.0,3.0,90,0.00,,,0.00,Wunderground v.1.15,2013-12-30 10:51:00,
2013-12-30 05:52:00,33.5,30.9,29.81,WSW,251,2.0,3.0,90,0.00,,,0.00,Wunderground v.1.15,2013-12-30 10:52:00,
2013-12-30 05:53:00,33.6,31.0,29.81,WSW,251,1.0,3.0,90,0.00,,,0.00,Wunderground v.1.15,2013-12-30 10:53:00,
2013-12-30 05:55:00,33.5,30.9,29.81,WSW,250,1.0,3.0,90,0.00,,,0.00,Wunderground v.1.15,2013-12-30 10:55:00,
2013-12-30 05:56:00,33.5,30.9,29.81,WSW,250,1.0,3.0,90,0.00,,,0.00,Wunderground v.1.15,2013-12-30 10:56:00,
2013-12-30 05:57:00,33.5,30.9,29.81,WSW,250,0.0,3.0,90,0.00,,,0.00,Wunderground v.1.15,2013-12-30 10:57:00,
2013-12-30 05:58:00,33.5,30.9,29.81,WSW,250,2.0,3.0,90,0.00,,,0.00,Wunderground v.1.15,2013-12-30 10:58:00,
2013-12-30 06:01:00,33.6,31.0,29.81,WSW,244,4.0,4.0,90,0.00,,,0.00,Wunderground v.1.15,2013-12-30 11:01:00,
2013-12-30 06:02:00,33.7,31.1,29.81,WSW,244,1.0,4.0,90,0.00,,,0.00,Wunderground v.1.15,2013-12-30 11:02:00,
2013-12-30 06:03:00,33.7,31.1,29.81,WSW,244,1.0,4.0,90,0.00,,,0.00,Wunderground v.1.15,2013-12-30 11:03:00,
2013-12-30 06:04:00,33.6,31.0,29.81,WSW,244,0.0,4.0,90,0.00,,,0.00,Wunderground v.1.15,2013-12-30 11:04:00,
2013-12-30 06:06:00,33.5,30.9,29.81,WSW,244,0.0,4.0,90,0.00,,,0.00,Wunderground v.1.15,2013-12-30 11:06:00,
2013-12-30 06:07:00,33.7,31.1,29.81,WSW,244,3.0,4.0,90,0.00,,,0.00,Wunderground v.1.15,2013-12-30 11:07:00,
2013-12-30 06:08:00,33.8,31.2,29.81,WSW,245,0.0,4.0,90,0.00,,,0.00,Wunderground v.1.15,2013-12-30 11:08:00,
2013-12-30 06:09:00,33.8,31.2,29.81,WSW,244,1.0,4.0,90,0.00,,,0.00,Wunderground v.1.15,2013-12-30 11:09:00,
2013-12-30 06:11:00,33.9,31.3,29.81,WSW,244,0.0,2.0,90,0.00,,,0.00,Wunderground v.1.15,2013-12-30 11:11:00,
2013-12-30 06:12:00,33.9,31.3,29.81,WSW,244,2.0,3.0,90,0.00,,,0.00,Wunderground v.1.15,2013-12-30 11:12:00,
2013-12-30 06:13:00,33.9,31.3,29.81,WSW,245,0.0,3.0,90,0.00,,,0.00,Wunderground v.1.15,2013-12-30 11:13:00,
2013-12-30 06:14:00,33.9,31.3,29.82,WSW,244,2.0,3.0,90,0.00,,,0.00,Wunderground v.1.15,2013-12-30 11:14:00,
2013-12-30 06:16:00,33.9,31.3,29.82,WSW,244,0.0,3.0,90,0.00,,,0.00,Wunderground v.1.15,2013-12-30 11:16:00,
2013-12-30 06:17:00,33.9,31.3,29.82,WSW,244,1.0,3.0,90,0.00,,,0.00,Wunderground v.1.15,2013-12-30 11:17:00,
2013-12-30 06:18:00,33.8,31.2,29.82,WSW,245,0.0,3.0,90,0.00,,,0.00,Wunderground v.1.15,2013-12-30 11:18:00,
2013-12-30 06:19:00,33.8,31.2,29.82,WSW,244,0.0,3.0,90,0.00,,,0.00,Wunderground v.1.15,2013-12-30 11:19:00,
2013-12-30 06:22:00,33.7,31.1,29.82,WSW,244,1.0,1.0,90,0.00,,,0.00,Wunderground v.1.15,2013-12-30 11:22:00,
2013-12-30 06:24:00,33.6,31.0,29.82,WSW,244,1.0,2.0,90,0.00,,,0.00,Wunderground v.1.15,2013-12-30 11:24:00,
2013-12-30 06:25:00,33.6,31.0,29.82,WSW,245,1.0,2.0,90,0.00,,,0.00,Wunderground v.1.15,2013-12-30 11:25:00,
2013-12-30 06:27:00,33.5,30.9,29.82,WSW,244,1.0,2.0,90,0.00,,,0.00,Wunderground v.1.15,2013-12-30 11:27:00,
2013-12-30 06:28:00,33.5,30.9,29.82,WSW,244,1.0,2.0,90,0.00,,,0.00,Wunderground v.1.15,2013-12-30 11:28:00,
2013-12-30 06:29:00,33.5,30.9,29.82,WSW,244,1.0,2.0,90,0.00,,,0.00,Wunderground v.1.15,2013-12-30 11:29:00,
2013-12-30 06:30:00,33.5,30.9,29.82,WSW,244,1.0,2.0,90,0.00,,,0.00,Wunderground v.1.15,2013-12-30 11:30:00,
2013-12-30 06:32:00,33.4,31.1,29.83,WSW,244,0.0,2.0,91,0.00,,,0.00,Wunderground v.1.15,2013-12-30 11:32:00,
2013-12-30 06:33:00,33.4,31.1,29.83,WSW,244,2.0,2.0,91,0.00,,,0.00,Wunderground v.1.15,2013-12-30 11:33:00,
2013-12-30 06:34:00,33.4,31.1,29.82,WSW,244,0.0,3.0,91,0.00,,,0.00,Wunderground v.1.15,2013-12-30 11:34:00,
2013-12-30 06:35:00,33.3,31.0,29.82,WSW,244,0.0,3.0,91,0.00,,,0.00,Wunderground v.1.15,2013-12-30 11:35:00,
2013-12-30 06:37:00,33.2,30.6,29.83,WSW,244,0.0,3.0,90,0.00,,,0.00,Wunderground v.1.15,2013-12-30 11:37:00,
2013-12-30 06:38:00,33.1,30.5,29.83,WSW,244,0.0,3.0,90,0.00,,,0.00,Wunderground v.1.15,2013-12-30 11:38:00,
2013-12-30 06:40:00,33.0,30.4,29.83,WSW,244,0.0,0.0,90,0.00,,,0.00,Wunderground v.1.15,2013-12-30 11:40:00,
2013-12-30 06:43:00,32.9,30.3,29.83,WSW,244,1.0,1.0,90,0.00,,,0.00,Wunderground v.1.15,2013-12-30 11:43:00,
2013-12-30 06:45:00,32.8,30.5,29.82,WSW,244,0.0,3.0,91,0.00,,,0.00,Wunderground v.1.15,2013-12-30 11:45:00,
2013-12-30 06:48:00,32.7,30.4,29.83,WSW,244,1.0,4.0,91,0.00,,,0.00,Wunderground v.1.15,2013-12-30 11:48:00,
2013-12-30 06:49:00,32.6,30.3,29.83,WSW,244,1.0,4.0,91,0.00,,,0.00,Wunderground v.1.15,2013-12-30 11:49:00,
2013-12-30 06:50:00,32.6,30.0,29.83,WSW,244,3.0,3.0,90,0.00,,,0.00,Wunderground v.1.15,2013-12-30 11:50:00,
2013-12-30 06:51:00,32.6,30.0,29.83,WSW,244,1.0,3.0,90,0.00,,,0.00,Wunderground v.1.15,2013-12-30 11:51:00,
2013-12-30 06:53:00,32.6,30.0,29.83,WSW,244,1.0,3.0,90,0.00,,,0.00,Wunderground v.1.15,2013-12-30 11:53:00,
2013-12-30 06:54:00,32.6,30.0,29.83,WSW,244,0.0,3.0,90,0.00,,,0.00,Wunderground v.1.15,2013-12-30 11:54:00,
2013-12-30 06:55:00,32.6,30.0,29.83,WSW,243,3.0,3.0,90,0.00,,,0.00,Wunderground v.1.15,2013-12-30 11:55:00,
2013-12-30 06:56:00,32.6,30.0,29.83,WSW,243,0.0,3.0,90,0.00,,,0.00,Wunderground v.1.15,2013-12-30 11:56:00,
2013-12-30 06:57:00,32.7,30.1,29.83,WSW,243,0.0,3.0,90,0.00,,,0.00,Wunderground v.1.15,2013-12-30 11:57:00,
2013-12-30 06:58:00,32.7,30.1,29.84,WSW,243,0.0,3.0,90,0.00,,,0.00,Wunderground v.1.15,2013-12-30 11:58:00,
2013-12-30 06:59:00,32.7,30.1,29.84,WSW,243,0.0,3.0,90,0.00,,,0.00,Wunderground v.1.15,2013-12-30 11:59:00,
2013-12-30 07:00:00,32.7,30.1,29.84,WSW,243,2.0,3.0,90,0.00,,,0.00,Wunderground v.1.15,2013-12-30 12:00:00,
2013-12-30 07:01:00,32.7,30.1,29.84,WSW,244,0.0,3.0,90,0.00,,,0.00,Wunderground v.1.15,2013-12-30 12:01:00,
2013-12-30 07:02:00,32.8,30.2,29.83,WSW,243,0.0,3.0,90,0.00,,,0.00,Wunderground v.1.15,2013-12-30 12:02:00,
2013-12-30 07:03:00,32.7,30.1,29.83,WSW,243,0.0,3.0,90,0.00,,,0.00,Wunderground v.1.15,2013-12-30 12:03:00,
2013-12-30 07:04:00,32.7,30.1,29.83,WSW,243,0.0,3.0,90,0.00,,,0.00,Wunderground v.1.15,2013-12-30 12:04:00,
2013-12-30 07:06:00,32.6,30.0,29.84,WSW,243,0.0,3.0,90,0.00,,,0.00,Wunderground v.1.15,2013-12-30 12:06:00,
2013-12-30 07:07:00,32.5,29.9,29.84,WSW,243,1.0,3.0,90,0.00,,,0.00,Wunderground v.1.15,2013-12-30 12:07:00,
2013-12-30 07:08:00,32.4,30.1,29.84,WSW,243,1.0,3.0,91,0.00,,,0.00,Wunderground v.1.15,2013-12-30 12:08:00,
2013-12-30 07:09:00,32.1,29.8,29.84,WSW,254,1.0,4.0,91,0.00,,,0.00,Wunderground v.1.15,2013-12-30 12:09:00,
2013-12-30 07:11:00,31.7,29.4,29.84,WSW,254,1.0,2.0,91,0.00,,,0.00,Wunderground v.1.15,2013-12-30 12:11:00,
2013-12-30 07:12:00,31.6,29.3,29.84,WSW,254,0.0,2.0,91,0.00,,,0.00,Wunderground v.1.15,2013-12-30 12:12:00,
2013-12-30 07:13:00,31.5,29.2,29.84,WSW,254,0.0,2.0,91,0.00,,,0.00,Wunderground v.1.15,2013-12-30 12:13:00,
2013-12-30 07:14:00,31.4,28.8,29.84,WSW,254,0.0,2.0,90,0.00,,,0.00,Wunderground v.1.15,2013-12-30 12:14:00,
2013-12-30 07:16:00,31.3,28.7,29.85,SW,234,2.0,3.0,90,0.00,,,0.00,Wunderground v.1.15,2013-12-30 12:16:00,
2013-12-30 07:17:00,31.3,28.7,29.85,SW,234,1.0,3.0,90,0.00,,,0.00,Wunderground v.1.15,2013-12-30 12:17:00,
2013-12-30 07:18:00,31.3,28.7,29.85,SW,234,1.0,3.0,90,0.00,,,0.00,Wunderground v.1.15,2013-12-30 12:18:00,
2013-12-30 07:19:00,31.5,28.9,29.85,SW,217,2.0,4.0,90,0.00,,,0.00,Wunderground v.1.15,2013-12-30 12:19:00,
2013-12-30 07:22:00,31.6,29.0,29.86,SW,229,0.0,3.0,90,0.00,,,0.00,Wunderground v.1.15,2013-12-30 12:22:00,
2013-12-30 07:23:00,31.7,29.1,29.85,SW,223,1.0,5.0,90,0.00,,,0.00,Wunderground v.1.15,2013-12-30 12:23:00,
2013-12-30 07:24:00,31.9,29.3,29.85,SW,223,1.0,5.0,90,0.00,,,0.00,Wunderground v.1.15,2013-12-30 12:24:00,
2013-12-30 07:27:00,32.3,29.7,29.85,SSW,201,1.0,5.0,90,0.00,,,0.00,Wunderground v.1.15,2013-12-30 12:27:00,
2013-12-30 07:28:00,32.3,29.7,29.85,SSW,206,1.0,5.0,90,0.00,,,0.00,Wunderground v.1.15,2013-12-30 12:28:00,
2013-12-30 07:30:00,32.5,29.9,29.85,SSW,206,1.0,2.0,90,0.00,,,0.00,Wunderground v.1.15,2013-12-30 12:30:00,
2013-12-30 07:32:00,32.6,30.0,29.86,SW,236,2.0,6.0,90,0.00,,,0.00,Wunderground v.1.15,2013-12-30 12:32:00,
2013-12-30 07:33:00,32.6,30.0,29.86,SW,218,2.0,6.0,90,0.00,,,0.00,Wunderground v.1.15,2013-12-30 12:33:00,
2013-12-30 07:34:00,32.6,30.0,29.86,SSW,196,4.0,6.0,90,0.00,,,0.00,Wunderground v.1.15,2013-12-30 12:34:00,
2013-12-30 07:35:00,32.7,30.1,29.86,SW,230,4.0,6.0,90,0.00,,,0.00,Wunderground v.1.15,2013-12-30 12:35:00,
2013-12-30 07:38:00,33.0,30.4,29.86,SW,216,1.0,6.0,90,0.00,,,0.00,Wunderground v.1.15,2013-12-30 12:38:00,
2013-12-30 07:39:00,33.0,30.4,29.86,SW,216,0.0,6.0,90,0.00,,,0.00,Wunderground v.1.15,2013-12-30 12:39:00,
2013-12-30 07:40:00,33.1,30.5,29.86,SSW,203,3.0,6.0,90,0.00,,,0.00,Wunderground v.1.15,2013-12-30 12:40:00,
2013-12-30 07:43:00,33.1,30.5,29.86,SSW,203,2.0,6.0,90,0.00,,,0.00,Wunderground v.1.15,2013-12-30 12:43:00,
2013-12-30 07:44:00,33.1,30.5,29.86,SSW,203,4.0,6.0,90,0.00,,,0.00,Wunderground v.1.15,2013-12-30 12:44:00,
2013-12-30 07:45:00,33.1,30.5,29.86,SSW,203,1.0,6.0,90,0.00,,,0.00,Wunderground v.1.15,2013-12-30 12:45:00,
2013-12-30 07:48:00,33.1,30.5,29.86,SSW,203,2.0,6.0,90,0.00,,,0.00,Wunderground v.1.15,2013-12-30 12:48:00,
2013-12-30 07:49:00,33.1,30.5,29.86,SSW,203,0.0,6.0,90,0.00,,,0.00,Wunderground v.1.15,2013-12-30 12:49:00,
2013-12-30 07:50:00,33.1,30.5,29.86,SSW,203,0.0,2.0,90,0.00,,,0.00,Wunderground v.1.15,2013-12-30 12:50:00,
2013-12-30 07:53:00,33.1,30.5,29.86,SSW,203,2.0,3.0,90,0.00,,,0.00,Wunderground v.1.15,2013-12-30 12:53:00,
2013-12-30 07:54:00,33.1,30.5,29.86,SSW,203,2.0,3.0,90,0.00,,,0.00,Wunderground v.1.15,2013-12-30 12:54:00,
2013-12-30 07:55:00,33.2,30.6,29.86,SSW,203,2.0,3.0,90,0.00,,,0.00,Wunderground v.1.15,2013-12-30 12:55:00,
2013-12-30 07:58:00,33.4,30.8,29.87,SSW,203,0.0,4.0,90,0.00,,,0.00,Wunderground v.1.15,2013-12-30 12:58:00,
2013-12-30 07:59:00,33.5,30.9,29.87,SSW,203,1.0,4.0,90,0.00,,,0.00,Wunderground v.1.15,2013-12-30 12:59:00,
2013-12-30 08:00:00,33.5,30.9,29.86,SSW,203,0.0,1.0,90,0.00,,,0.00,Wunderground v.1.15,2013-12-30 13:00:00,
2013-12-30 08:01:00,33.5,30.9,29.86,SSW,203,1.0,3.0,90,0.00,,,0.00,Wunderground v.1.15,2013-12-30 13:01:00,
2013-12-30 08:03:00,33.6,31.0,29.87,SSW,203,0.0,3.0,90,0.00,,,0.00,Wunderground v.1.15,2013-12-30 13:03:00,
2013-12-30 08:04:00,33.6,31.0,29.87,SSW,203,1.0,3.0,90,0.00,,,0.00,Wunderground v.1.15,2013-12-30 13:04:00,
2013-12-30 08:05:00,33.7,31.1,29.87,SSW,203,3.0,4.0,90,0.00,,,0.00,Wunderground v.1.15,2013-12-30 13:05:00,
2013-12-30 08:06:00,33.7,31.1,29.87,SSW,203,2.0,4.0,90,0.00,,,0.00,Wunderground v.1.15,2013-12-30 13:06:00,
2013-12-30 08:08:00,33.8,31.2,29.87,SSW,204,1.0,6.0,90,0.00,,,0.00,Wunderground v.1.15,2013-12-30 13:08:00,
2013-12-30 08:09:00,33.8,31.2,29.87,SW,217,4.0,6.0,90,0.00,,,0.00,Wunderground v.1.15,2013-12-30 13:09:00,
2013-12-30 08:10:00,33.8,31.2,29.87,SW,217,3.0,3.0,90,0.00,,,0.00,Wunderground v.1.15,2013-12-30 13:10:00,
2013-12-30 08:11:00,33.8,31.2,29.87,SW,217,1.0,3.0,90,0.00,,,0.00,Wunderground v.1.15,2013-12-30 13:11:00,
2013-12-30 08:14:00,33.9,31.3,29.87,SSW,193,2.0,6.0,90,0.00,,,0.00,Wunderground v.1.15,2013-12-30 13:14:00,
2013-12-30 08:15:00,33.9,31.3,29.87,SSW,193,1.0,6.0,90,0.00,,,0.00,Wunderground v.1.15,2013-12-30 13:15:00,
2013-12-30 08:16:00,33.9,31.3,29.87,SSW,193,1.0,6.0,90,0.00,,,0.00,Wunderground v.1.15,2013-12-30 13:16:00,
2013-12-30 08:19:00,34.0,31.4,29.87,SW,232,2.0,6.0,90,0.00,,,0.00,Wunderground v.1.15,2013-12-30 13:19:00,
2013-12-30 08:20:00,34.0,31.4,29.87,SW,232,0.0,2.0,90,0.00,,,0.00,Wunderground v.1.15,2013-12-30 13:20:00,
2013-12-30 08:21:00,34.1,31.5,29.87,SW,217,3.0,4.0,90,0.00,,,0.00,Wunderground v.1.15,2013-12-30 13:21:00,
2013-12-30 08:22:00,34.1,31.5,29.87,SW,219,1.0,4.0,90,0.00,,,0.00,Wunderground v.1.15,2013-12-30 13:22:00,
2013-12-30 08:24:00,34.3,31.7,29.87,SW,219,1.0,4.0,90,0.00,,,0.00,Wunderground v.1.15,2013-12-30 13:24:00,
2013-12-30 08:25:00,34.3,31.7,29.87,SW,219,1.0,4.0,90,0.00,,,0.00,Wunderground v.1.15,2013-12-30 13:25:00,
2013-12-30 08:26:00,34.4,31.8,29.87,SW,219,0.0,4.0,90,0.00,,,0.00,Wunderground v.1.15,2013-12-30 13:26:00,
2013-12-30 08:27:00,34.4,31.8,29.87,SW,219,3.0,4.0,90,0.00,,,0.00,Wunderground v.1.15,2013-12-30 13:27:00,
2013-12-30 08:29:00,34.6,32.0,29.88,SW,219,3.0,4.0,90,0.00,,,0.00,Wunderground v.1.15,2013-12-30 13:29:00,
2013-12-30 08:31:00,34.6,32.0,29.88,SW,220,1.0,5.0,90,0.00,,,0.00,Wunderground v.1.15,2013-12-30 13:31:00,
2013-12-30 08:32:00,34.7,32.1,29.88,SW,220,1.0,5.0,90,0.00,,,0.00,Wunderground v.1.15,2013-12-30 13:32:00,
2013-12-30 08:34:00,34.7,31.8,29.88,WSW,254,3.0,6.0,89,0.00,,,0.00,Wunderground v.1.15,2013-12-30 13:34:00,
2013-12-30 08:36:00,34.9,32.3,29.88,SW,228,4.0,7.0,90,0.00,,,0.00,Wunderground v.1.15,2013-12-30 13:36:00,
2013-12-30 08:37:00,35.0,32.1,29.88,SSW,207,4.0,7.0,89,0.00,,,0.00,Wunderground v.1.15,2013-12-30 13:37:00,
2013-12-30 08:40:00,35.2,32.3,29.88,SW,222,3.0,7.0,89,0.00,,,0.00,Wunderground v.1.15,2013-12-30 13:40:00,
2013-12-30 08:41:00,35.2,32.3,29.88,SSW,201,1.0,9.0,89,0.00,,,0.00,Wunderground v.1.15,2013-12-30 13:41:00,
2013-12-30 08:42:00,35.3,32.4,29.89,WSW,244,3.0,9.0,89,0.00,,,0.00,Wunderground v.1.15,2013-12-30 13:42:00,
2013-12-30 08:43:00,35.3,32.4,29.89,WSW,237,3.0,9.0,89,0.00,,,0.00,Wunderground v.1.15,2013-12-30 13:43:00,
2013-12-30 08:45:00,35.3,32.1,29.89,SW,229,1.0,9.0,88,0.00,,,0.00,Wunderground v.1.15,2013-12-30 13:45:00,
2013-12-30 08:46:00,35.3,32.1,29.89,SW,230,1.0,9.0,88,0.00,,,0.00,Wunderground v.1.15,2013-12-30 13:46:00,
2013-12-30 08:47:00,35.3,32.1,29.89,SW,220,4.0,9.0,88,0.00,,,0.00,Wunderground v.1.15,2013-12-30 13:47:00,
2013-12-30 08:48:00,35.4,32.2,29.89,SW,236,2.0,9.0,88,0.00,,,0.00,Wunderground v.1.15,2013-12-30 13:48:00,
2013-12-30 08:50:00,35.4,32.2,29.89,SW,229,5.0,10.0,88,0.00,,,0.00,Wunderground v.1.15,2013-12-30 13:50:00,
2013-12-30 08:51:00,35.4,32.2,29.89,SW,221,2.0,10.0,88,0.00,,,0.00,Wunderground v.1.15,2013-12-30 13:51:00,
2013-12-30 08:52:00,35.4,32.2,29.89,SSW,194,1.0,10.0,88,0.00,,,0.00,Wunderground v.1.15,2013-12-30 13:52:00,
2013-12-30 08:53:00,35.4,32.2,29.89,SSW,206,4.0,10.0,88,0.00,,,0.00,Wunderground v.1.15,2013-12-30 13:53:00,
2013-12-30 08:55:00,35.3,32.1,29.90,SSW,205,1.0,10.0,88,0.00,,,0.00,Wunderground v.1.15,2013-12-30 13:55:00,
2013-12-30 08:56:00,35.3,32.1,29.90,WSW,238,5.0,10.0,88,0.00,,,0.00,Wunderground v.1.15,2013-12-30 13:56:00,
2013-12-30 08:57:00,35.3,32.1,29.90,SSW,202,3.0,10.0,88,0.00,,,0.00,Wunderground v.1.15,2013-12-30 13:57:00,
2013-12-30 08:58:00,35.3,32.1,29.90,SSW,202,0.0,10.0,88,0.00,,,0.00,Wunderground v.1.15,2013-12-30 13:58:00,
2013-12-30 08:59:00,35.3,32.1,29.90,SSW,202,1.0,10.0,88,0.00,,,0.00,Wunderground v.1.15,2013-12-30 13:59:00,
2013-12-30 09:01:00,35.3,32.1,29.90,WSW,254,2.0,10.0,88,0.00,,,0.00,Wunderground v.1.15,2013-12-30 14:01:00,
2013-12-30 09:02:00,35.3,32.1,29.90,SW,215,2.0,10.0,88,0.00,,,0.00,Wunderground v.1.15,2013-12-30 14:02:00,
2013-12-30 09:03:00,35.3,32.1,29.91,SSW,211,3.0,10.0,88,0.00,,,0.00,Wunderground v.1.15,2013-12-30 14:03:00,
2013-12-30 09:04:00,35.3,32.1,29.91,SW,232,6.0,10.0,88,0.00,,,0.00,Wunderground v.1.15,2013-12-30 14:04:00,
2013-12-30 09:06:00,35.2,32.0,29.91,South,175,4.0,10.0,88,0.00,,,0.00,Wunderground v.1.15,2013-12-30 14:06:00,
2013-12-30 09:07:00,35.2,32.0,29.91,SSW,201,2.0,10.0,88,0.00,,,0.00,Wunderground v.1.15,2013-12-30 14:07:00,
2013-12-30 09:08:00,35.2,32.0,29.91,SSW,202,3.0,10.0,88,0.00,,,0.00,Wunderground v.1.15,2013-12-30 14:08:00,
2013-12-30 09:09:00,35.2,32.0,29.91,SSW,202,2.0,10.0,88,0.00,,,0.00,Wunderground v.1.15,2013-12-30 14:09:00,
2013-12-30 09:10:00,35.2,32.0,29.91,WSW,254,3.0,3.0,88,0.00,,,0.00,Wunderground v.1.15,2013-12-30 14:10:00,
2013-12-30 09:11:00,35.2,32.0,29.91,WSW,244,1.0,7.0,88,0.00,,,0.00,Wunderground v.1.15,2013-12-30 14:11:00,
2013-12-30 09:12:00,35.3,32.1,29.91,SSW,211,5.0,7.0,88,0.00,,,0.00,Wunderground v.1.15,2013-12-30 14:12:00,
2013-12-30 09:14:00,35.2,32.0,29.91,WSW,253,5.0,8.0,88,0.00,,,0.00,Wunderground v.1.15,2013-12-30 14:14:00,
2013-12-30 09:15:00,35.3,32.1,29.91,WSW,253,0.0,8.0,88,0.00,,,0.00,Wunderground v.1.15,2013-12-30 14:15:00,
2013-12-30 09:16:00,35.3,32.1,29.92,SW,231,1.0,8.0,88,0.00,,,0.00,Wunderground v.1.15,2013-12-30 14:16:00,
2013-12-30 09:17:00,35.3,32.1,29.92,SSW,208,1.0,8.0,88,0.00,,,0.00,Wunderground v.1.15,2013-12-30 14:17:00,
2013-12-30 09:19:00,35.3,32.1,29.92,SW,225,2.0,8.0,88,0.00,,,0.00,Wunderground v.1.15,2013-12-30 14:19:00,
2013-12-30 09:20:00,35.3,32.1,29.92,SSW,194,3.0,5.0,88,0.00,,,0.00,Wunderground v.1.15,2013-12-30 14:20:00,
2013-12-30 09:22:00,35.5,32.6,29.92,SW,231,4.0,5.0,89,0.00,,,0.00,Wunderground v.1.15,2013-12-30 14:22:00,
2013-12-30 09:23:00,35.6,32.7,29.92,SW,231,1.0,5.0,89,0.00,,,0.00,Wunderground v.1.15,2013-12-30 14:23:00,
2013-12-30 09:24:00,35.8,32.9,29.92,SW,236,2.0,5.0,89,0.00,,,0.00,Wunderground v.1.15,2013-12-30 14:24:00,
2013-12-30 09:25:00,35.8,32.9,29.92,SW,236,2.0,5.0,89,0.00,,,0.00,Wunderground v.1.15,2013-12-30 14:25:00,
2013-12-30 09:27:00,35.8,32.9,29.92,SW,221,5.0,9.0,89,0.00,,,0.00,Wunderground v.1.15,2013-12-30 14:27:00,
2013-12-30 09:28:00,35.9,33.0,29.92,SW,218,6.0,9.0,89,0.00,,,0.00,Wunderground v.1.15,2013-12-30 14:28:00,
2013-12-30 09:29:00,35.9,32.7,29.92,WSW,240,2.0,10.0,88,0.00,,,0.00,Wunderground v.1.15,2013-12-30 14:29:00,
2013-12-30 09:30:00,36.0,32.8,29.92,SW,236,3.0,3.0,88,0.00,,,0.00,Wunderground v.1.15,2013-12-30 14:30:00,
2013-12-30 09:32:00,36.0,32.8,29.92,West,267,2.0,11.0,88,0.00,,,0.00,Wunderground v.1.15,2013-12-30 14:32:00,
2013-12-30 09:34:00,36.0,32.8,29.92,WSW,248,3.0,11.0,88,0.00,,,0.00,Wunderground v.1.15,2013-12-30 14:34:00,
2013-12-30 09:35:00,36.0,32.8,29.92,SW,230,4.0,11.0,88,0.00,,,0.00,Wunderground v.1.15,2013-12-30 14:35:00,
2013-12-30 09:36:00,36.0,32.8,29.92,South,182,1.0,11.0,88,0.00,,,0.00,Wunderground v.1.15,2013-12-30 14:36:00,
2013-12-30 09:37:00,36.0,32.8,29.92,West,262,4.0,11.0,88,0.00,,,0.00,Wunderground v.1.15,2013-12-30 14:37:00,
2013-12-30 09:38:00,36.0,32.8,29.92,West,265,3.0,11.0,88,0.00,,,0.00,Wunderground v.1.15,2013-12-30 14:38:00,
2013-12-30 09:40:00,36.1,32.9,29.92,WSW,248,2.0,5.0,88,0.00,,,0.00,Wunderground v.1.15,2013-12-30 14:40:00,
2013-12-30 09:42:00,36.1,32.9,29.92,West,268,0.0,5.0,88,0.00,,,0.00,Wunderground v.1.15,2013-12-30 14:42:00,
2013-12-30 09:43:00,36.1,32.9,29.92,SW,234,3.0,5.0,88,0.00,,,0.00,Wunderground v.1.15,2013-12-30 14:43:00,
2013-12-30 09:45:00,36.1,32.9,29.92,SSW,200,2.0,8.0,88,0.00,,,0.00,Wunderground v.1.15,2013-12-30 14:45:00,
2013-12-30 09:46:00,36.2,33.0,29.93,SW,234,7.0,8.0,88,0.00,,,0.00,Wunderground v.1.15,2013-12-30 14:46:00,
2013-12-30 09:47:00,36.2,33.0,29.93,SSW,200,3.0,9.0,88,0.00,,,0.00,Wunderground v.1.15,2013-12-30 14:47:00,
2013-12-30 09:48:00,36.3,33.1,29.93,SSW,193,3.0,9.0,88,0.00,,,0.00,Wunderground v.1.15,2013-12-30 14:48:00,
2013-12-30 09:50:00,36.3,33.1,29.93,WSW,242,5.0,7.0,88,0.00,,,0.00,Wunderground v.1.15,2013-12-30 14:50:00,
2013-12-30 09:51:00,36.4,33.2,29.93,WSW,250,2.0,7.0,88,0.00,,,0.00,Wunderground v.1.15,2013-12-30 14:51:00,
2013-12-30 09:52:00,36.4,33.2,29.93,South,185,3.0,7.0,88,0.00,,,0.00,Wunderground v.1.15,2013-12-30 14:52:00,
2013-12-30 09:54:00,36.4,33.2,29.94,SW,225,0.0,7.0,88,0.00,,,0.00,Wunderground v.1.15,2013-12-30 14:54:00,
2013-12-30 09:55:00,36.5,33.3,29.94,SW,225,3.0,7.0,88,0.00,,,0.00,Wunderground v.1.15,2013-12-30 14:55:00,
2013-12-30 09:56:00,36.5,33.3,29.94,SW,225,4.0,7.0,88,0.00,,,0.00,Wunderground v.1.15,2013-12-30 14:56:00,
2013-12-30 09:57:00,36.5,33.3,29.94,South,177,4.0,7.0,88,0.00,,,0.00,Wunderground v.1.15,2013-12-30 14:57:00,
2013-12-30 09:58:00,36.5,33.3,29.94,SSW,211,3.0,7.0,88,0.00,,,0.00,Wunderground v.1.15,2013-12-30 14:58:00,
2013-12-30 09:59:00,36.6,33.4,29.94,WSW,248,5.0,9.0,88,0.00,,,0.00,Wunderground v.1.15,2013-12-30 14:59:00,
2013-12-30 10:01:00,36.6,33.1,29.94,West,270,3.0,7.0,87,0.00,,,0.00,Wunderground v.1.15,2013-12-30 15:01:00,
2013-12-30 10:02:00,36.6,33.1,29.94,SSW,207,5.0,8.0,87,0.00,,,0.00,Wunderground v.1.15,2013-12-30 15:02:00,
2013-12-30 10:03:00,36.7,33.2,29.94,WSW,251,1.0,8.0,87,0.00,,,0.00,Wunderground v.1.15,2013-12-30 15:03:00,
2013-12-30 10:04:00,36.7,33.2,29.94,West,278,3.0,9.0,87,0.00,,,0.00,Wunderground v.1.15,2013-12-30 15:04:00,
2013-12-30 10:06:00,36.8,33.3,29.94,West,271,1.0,9.0,87,0.00,,,0.00,Wunderground v.1.15,2013-12-30 15:06:00,
2013-12-30 10:08:00,36.9,33.4,29.95,WSW,257,2.0,9.0,87,0.00,,,0.00,Wunderground v.1.15,2013-12-30 15:08:00,
2013-12-30 10:09:00,36.9,33.4,29.95,SW,232,6.0,9.0,87,0.00,,,0.00,Wunderground v.1.15,2013-12-30 15:09:00,
2013-12-30 10:10:00,36.9,33.4,29.95,WSW,240,3.0,4.0,87,0.00,,,0.00,Wunderground v.1.15,2013-12-30 15:10:00,
2013-12-30 10:11:00,37.0,33.5,29.95,WSW,252,3.0,8.0,87,0.00,,,0.00,Wunderground v.1.15,2013-12-30 15:11:00,
2013-12-30 10:12:00,37.0,33.5,29.95,West,275,2.0,8.0,87,0.00,,,0.00,Wunderground v.1.15,2013-12-30 15:12:00,
2013-12-30 10:13:00,37.1,33.6,29.94,WSW,252,8.0,9.0,87,0.00,,,0.00,Wunderground v.1.15,2013-12-30 15:13:00,
2013-12-30 10:14:00,37.1,33.6,29.94,SW,223,4.0,9.0,87,0.00,,,0.00,Wunderground v.1.15,2013-12-30 15:14:00,
2013-12-30 10:15:00,37.1,33.6,29.94,WSW,250,2.0,9.0,87,0.00,,,0.00,Wunderground v.1.15,2013-12-30 15:15:00,
2013-12-30 10:16:00,37.2,33.7,29.94,SW,229,6.0,9.0,87,0.00,,,0.00,Wunderground v.1.15,2013-12-30 15:16:00,
2013-12-30 10:17:00,37.2,33.7,29.95,WSW,244,4.0,9.0,87,0.00,,,0.00,Wunderground v.1.15,2013-12-30 15:17:00,
2013-12-30 10:18:00,37.3,33.8,29.95,West,260,6.0,9.0,87,0.00,,,0.00,Wunderground v.1.15,2013-12-30 15:18:00,
2013-12-30 10:19:00,37.3,33.8,29.95,WSW,247,4.0,9.0,87,0.00,,,0.00,Wunderground v.1.15,2013-12-30 15:19:00,
2013-12-30 10:20:00,37.4,33.6,29.95,WSW,248,7.0,9.0,86,0.00,,,0.00,Wunderground v.1.15,2013-12-30 15:20:00,
2013-12-30 10:21:00,37.4,33.6,29.95,SSW,210,9.0,10.0,86,0.00,,,0.00,Wunderground v.1.15,2013-12-30 15:21:00,
2013-12-30 10:22:00,37.5,33.7,29.95,SW,231,3.0,10.0,86,0.00,,,0.00,Wunderground v.1.15,2013-12-30 15:22:00,
2013-12-30 10:23:00,37.5,33.7,29.95,NW,304,5.0,10.0,86,0.00,,,0.00,Wunderground v.1.15,2013-12-30 15:23:00,
2013-12-30 10:24:00,37.5,33.7,29.95,WSW,257,7.0,10.0,86,0.00,,,0.00,Wunderground v.1.15,2013-12-30 15:24:00,
2013-12-30 10:25:00,37.6,33.5,29.95,WNW,297,4.0,10.0,85,0.00,,,0.00,Wunderground v.1.15,2013-12-30 15:25:00,
2013-12-30 10:26:00,37.6,33.5,29.95,West,265,3.0,10.0,85,0.00,,,0.00,Wunderground v.1.15,2013-12-30 15:26:00,
2013-12-30 10:27:00,37.6,33.5,29.95,NNW,346,10.0,10.0,85,0.00,,,0.00,Wunderground v.1.15,2013-12-30 15:27:00,
2013-12-30 10:28:00,37.6,33.5,29.95,WNW,298,9.0,10.0,85,0.00,,,0.00,Wunderground v.1.15,2013-12-30 15:28:00,
2013-12-30 10:30:00,37.7,33.3,29.95,North,355,3.0,5.0,84,0.00,,,0.00,Wunderground v.1.15,2013-12-30 15:30:00,
2013-12-30 10:31:00,37.8,32.5,29.95,NW,313,10.0,11.0,81,0.00,,,0.00,Wunderground v.1.15,2013-12-30 15:31:00,
2013-12-30 10:32:00,37.8,32.2,29.96,NNW,336,8.0,13.0,80,0.00,,,0.00,Wunderground v.1.15,2013-12-30 15:32:00,
2013-12-30 10:33:00,37.8,31.2,29.96,West,267,6.0,13.0,77,0.00,,,0.00,Wunderground v.1.15,2013-12-30 15:33:00,
2013-12-30 10:35:00,38.0,29.4,29.96,NNW,346,5.0,19.0,71,0.00,,,0.00,Wunderground v.1.15,2013-12-30 15:35:00,
2013-12-30 10:36:00,38.0,29.1,29.96,NNW,329,13.0,20.0,70,0.00,,,0.00,Wunderground v.1.15,2013-12-30 15:36:00,
2013-12-30 10:37:00,38.0,29.1,29.96,NNW,333,11.0,20.0,70,0.00,,,0.00,Wunderground v.1.15,2013-12-30 15:37:00,
2013-12-30 10:38:00,38.0,28.0,29.96,NNE,15,11.0,22.0,67,0.00,,,0.00,Wunderground v.1.15,2013-12-30 15:38:00,
2013-12-30 10:39:00,37.9,27.9,29.96,West,275,9.0,22.0,67,0.00,,,0.00,Wunderground v.1.15,2013-12-30 15:39:00,
2013-12-30 10:41:00,37.9,27.9,29.96,WNW,286,14.0,21.0,67,0.00,,,0.00,Wunderground v.1.15,2013-12-30 15:41:00,
2013-12-30 10:42:00,37.9,28.3,29.96,NW,312,10.0,21.0,68,0.00,,,0.00,Wunderground v.1.15,2013-12-30 15:42:00,
2013-12-30 10:43:00,37.9,28.3,29.96,NW,321,8.0,21.0,68,0.00,,,0.00,Wunderground v.1.15,2013-12-30 15:43:00,
2013-12-30 10:44:00,37.9,27.5,29.96,NNW,333,6.0,21.0,66,0.00,,,0.00,Wunderground v.1.15,2013-12-30 15:44:00,
2013-12-30 10:46:00,37.9,27.5,29.96,WSW,238,8.0,21.0,66,0.00,,,0.00,Wunderground v.1.15,2013-12-30 15:46:00,
2013-12-30 10:48:00,37.8,27.8,29.97,WNW,283,11.0,21.0,67,0.00,,,0.00,Wunderground v.1.15,2013-12-30 15:48:00,
2013-12-30 10:49:00,37.8,27.5,29.96,West,266,10.0,21.0,66,0.00,,,0.00,Wunderground v.1.15,2013-12-30 15:49:00,
2013-12-30 10:51:00,37.7,27.0,29.96,NW,319,11.0,17.0,65,0.00,,,0.00,Wunderground v.1.15,2013-12-30 15:51:00,
2013-12-30 10:53:00,37.6,26.5,29.97,WNW,302,16.0,20.0,64,0.00,,,0.00,Wunderground v.1.15,2013-12-30 15:53:00,
2013-12-30 10:54:00,37.5,26.0,29.96,WSW,254,4.0,20.0,63,0.00,,,0.00,Wunderground v.1.15,2013-12-30 15:54:00,
2013-12-30 10:56:00,37.4,26.3,29.97,SW,234,17.0,20.0,64,0.00,,,0.00,Wunderground v.1.15,2013-12-30 15:56:00,
2013-12-30 10:58:00,37.2,26.1,29.97,West,269,13.0,20.0,64,0.00,,,0.00,Wunderground v.1.15,2013-12-30 15:58:00,
2013-12-30 10:59:00,37.2,25.8,29.97,West,263,4.0,20.0,63,0.00,,,0.00,Wunderground v.1.15,2013-12-30 15:59:00,
2013-12-30 11:01:00,37.1,26.0,29.97,NW,305,7.0,21.0,64,0.00,,,0.00,Wunderground v.1.15,2013-12-30 16:01:00,
2013-12-30 11:03:00,37.1,26.4,29.96,West,269,6.0,21.0,65,0.00,,,0.00,Wunderground v.1.15,2013-12-30 16:03:00,
2013-12-30 11:04:00,37.1,26.4,29.96,West,273,14.0,21.0,65,0.00,,,0.00,Wunderground v.1.15,2013-12-30 16:04:00,
2013-12-30 11:06:00,37.0,25.9,29.96,WNW,297,8.0,21.0,64,0.00,,,0.00,Wunderground v.1.15,2013-12-30 16:06:00,
2013-12-30 11:08:00,36.8,25.4,29.96,NW,319,8.0,21.0,63,0.00,,,0.00,Wunderground v.1.15,2013-12-30 16:08:00,
2013-12-30 11:09:00,36.8,25.4,29.96,WNW,289,12.0,21.0,63,0.00,,,0.00,Wunderground v.1.15,2013-12-30 16:09:00,
2013-12-30 11:11:00,36.6,25.2,29.96,WSW,255,12.0,13.0,63,0.00,,,0.00,Wunderground v.1.15,2013-12-30 16:11:00,
2013-12-30 11:13:00,36.6,25.6,29.96,WNW,298,3.0,14.0,64,0.00,,,0.00,Wunderground v.1.15,2013-12-30 16:13:00,
2013-12-30 11:14:00,36.6,25.6,29.96,WNW,284,2.0,14.0,64,0.00,,,0.00,Wunderground v.1.15,2013-12-30 16:14:00,
2013-12-30 11:16:00,36.5,25.5,29.96,WSW,254,3.0,14.0,64,0.00,,,0.00,Wunderground v.1.15,2013-12-30 16:16:00,
2013-12-30 11:19:00,36.4,25.4,29.96,NW,310,13.0,15.0,64,0.00,,,0.00,Wunderground v.1.15,2013-12-30 16:19:00,
2013-12-30 11:20:00,36.4,25.4,29.96,NW,304,8.0,8.0,64,0.00,,,0.00,Wunderground v.1.15,2013-12-30 16:20:00,
2013-12-30 11:21:00,36.3,24.9,29.96,NW,309,8.0,18.0,63,0.00,,,0.00,Wunderground v.1.15,2013-12-30 16:21:00,
2013-12-30 11:24:00,36.1,24.7,29.96,West,269,3.0,18.0,63,0.00,,,0.00,Wunderground v.1.15,2013-12-30 16:24:00,
2013-12-30 11:25:00,36.0,24.6,29.96,West,269,8.0,18.0,63,0.00,,,0.00,Wunderground v.1.15,2013-12-30 16:25:00,
2013-12-30 11:26:00,36.0,24.6,29.96,NNW,336,9.0,18.0,63,0.00,,,0.00,Wunderground v.1.15,2013-12-30 16:26:00,
2013-12-30 11:29:00,35.8,24.0,29.96,NNE,30,11.0,27.0,62,0.00,,,0.00,Wunderground v.1.15,2013-12-30 16:29:00,
2013-12-30 11:30:00,35.8,24.0,29.96,West,264,3.0,10.0,62,0.00,,,0.00,Wunderground v.1.15,2013-12-30 16:30:00,
2013-12-30 11:31:00,35.8,24.0,29.96,WNW,290,12.0,20.0,62,0.00,,,0.00,Wunderground v.1.15,2013-12-30 16:31:00,
2013-12-30 11:32:00,35.7,23.6,29.96,West,265,4.0,20.0,61,0.00,,,0.00,Wunderground v.1.15,2013-12-30 16:32:00,
2013-12-30 11:35:00,35.6,23.1,29.96,West,265,10.0,20.0,60,0.00,,,0.00,Wunderground v.1.15,2013-12-30 16:35:00,
2013-12-30 11:37:00,35.5,22.6,29.96,West,259,12.0,20.0,59,0.00,,,0.00,Wunderground v.1.15,2013-12-30 16:37:00,
2013-12-30 11:38:00,35.4,22.1,29.96,NW,325,11.0,24.0,58,0.00,,,0.00,Wunderground v.1.15,2013-12-30 16:38:00,
2013-12-30 11:40:00,35.3,22.0,29.96,WSW,251,12.0,12.0,58,0.00,,,0.00,Wunderground v.1.15,2013-12-30 16:40:00,
2013-12-30 11:41:00,35.2,21.9,29.96,WNW,286,7.0,18.0,58,0.00,,,0.00,Wunderground v.1.15,2013-12-30 16:41:00,
2013-12-30 11:42:00,35.2,22.3,29.96,WSW,249,13.0,20.0,59,0.00,,,0.00,Wunderground v.1.15,2013-12-30 16:42:00,
2013-12-30 11:43:00,35.2,21.9,29.96,West,278,6.0,20.0,58,0.00,,,0.00,Wunderground v.1.15,2013-12-30 16:43:00,
2013-12-30 11:45:00,35.1,22.2,29.96,WNW,298,10.0,20.0,59,0.00,,,0.00,Wunderground v.1.15,2013-12-30 16:45:00,
2013-12-30 11:46:00,35.2,21.9,29.96,SW,216,4.0,20.0,58,0.00,,,0.00,Wunderground v.1.15,2013-12-30 16:46:00,
2013-12-30 11:47:00,35.2,21.9,29.96,West,267,6.0,20.0,58,0.00,,,0.00,Wunderground v.1.15,2013-12-30 16:47:00,
2013-12-30 11:48:00,35.1,21.8,29.97,West,272,7.0,20.0,58,0.00,,,0.00,Wunderground v.1.15,2013-12-30 16:48:00,
2013-12-30 11:51:00,35.1,21.8,29.97,NNW,332,11.0,17.0,58,0.00,,,0.00,Wunderground v.1.15,2013-12-30 16:51:00,
2013-12-30 11:52:00,35.1,21.8,29.97,WNW,284,7.0,17.0,58,0.00,,,0.00,Wunderground v.1.15,2013-12-30 16:52:00,
2013-12-30 11:54:00,35.2,21.9,29.97,NNW,344,6.0,17.0,58,0.00,,,0.00,Wunderground v.1.15,2013-12-30 16:54:00,
2013-12-30 11:56:00,35.2,21.5,29.97,West,277,7.0,17.0,57,0.00,,,0.00,Wunderground v.1.15,2013-12-30 16:56:00,
2013-12-30 11:57:00,35.1,21.4,29.98,West,263,9.0,17.0,57,0.00,,,0.00,Wunderground v.1.15,2013-12-30 16:57:00,
2013-12-30 11:59:00,35.1,21.4,29.97,West,264,8.0,17.0,57,0.00,,,0.00,Wunderground v.1.15,2013-12-30 16:59:00,
2013-12-30 12:01:00,35.0,21.3,29.98,West,280,14.0,18.0,57,0.00,,,0.00,Wunderground v.1.15,2013-12-30 17:01:00,
2013-12-30 12:02:00,35.0,20.9,29.98,WSW,256,5.0,18.0,56,0.00,,,0.00,Wunderground v.1.15,2013-12-30 17:02:00,
2013-12-30 12:03:00,35.0,21.3,29.98,SW,235,3.0,18.0,57,0.00,,,0.00,Wunderground v.1.15,2013-12-30 17:03:00,
2013-12-30 12:04:00,35.0,21.7,29.98,West,281,9.0,18.0,58,0.00,,,0.00,Wunderground v.1.15,2013-12-30 17:04:00,
2013-12-30 12:07:00,35.1,21.4,29.98,NNW,343,5.0,18.0,57,0.00,,,0.00,Wunderground v.1.15,2013-12-30 17:07:00,
2013-12-30 12:08:00,35.2,21.5,29.98,WNW,295,9.0,18.0,57,0.00,,,0.00,Wunderground v.1.15,2013-12-30 17:08:00,
2013-12-30 12:10:00,35.3,21.2,29.98,West,275,7.0,8.0,56,0.00,,,0.00,Wunderground v.1.15,2013-12-30 17:10:00,
2013-12-30 12:12:00,35.3,21.2,29.98,West,265,4.0,18.0,56,0.00,,,0.00,Wunderground v.1.15,2013-12-30 17:12:00,
2013-12-30 12:13:00,35.2,20.6,29.98,West,271,4.0,18.0,55,0.00,,,0.00,Wunderground v.1.15,2013-12-30 17:13:00,
2013-12-30 12:15:00,35.1,20.1,29.98,West,278,4.0,18.0,54,0.00,,,0.00,Wunderground v.1.15,2013-12-30 17:15:00,
2013-12-30 12:17:00,35.1,20.1,29.98,West,263,13.0,18.0,54,0.00,,,0.00,Wunderground v.1.15,2013-12-30 17:17:00,
2013-12-30 12:18:00,35.0,19.6,29.98,West,279,9.0,18.0,53,0.00,,,0.00,Wunderground v.1.15,2013-12-30 17:18:00,
2013-12-30 12:19:00,35.0,19.6,29.98,West,269,6.0,18.0,53,0.00,,,0.00,Wunderground v.1.15,2013-12-30 17:19:00,
2013-12-30 12:21:00,34.9,19.0,29.98,NW,325,16.0,22.0,52,0.00,,,0.00,Wunderground v.1.15,2013-12-30 17:21:00,
2013-12-30 12:22:00,34.9,19.0,29.98,WSW,246,11.0,22.0,52,0.00,,,0.00,Wunderground v.1.15,2013-12-30 17:22:00,
2013-12-30 12:23:00,34.8,18.9,29.97,NW,321,16.0,22.0,52,0.00,,,0.00,Wunderground v.1.15,2013-12-30 17:23:00,
2013-12-30 12:24:00,34.8,18.9,29.98,WSW,257,10.0,22.0,52,0.00,,,0.00,Wunderground v.1.15,2013-12-30 17:24:00,
2013-12-30 12:26:00,34.8,18.9,29.97,NNW,331,12.0,22.0,52,0.00,,,0.00,Wunderground v.1.15,2013-12-30 17:26:00,
2013-12-30 12:27:00,34.8,18.9,29.98,WSW,255,11.0,22.0,52,0.00,,,0.00,Wunderground v.1.15,2013-12-30 17:27:00,
2013-12-30 12:28:00,34.7,18.9,29.98,WNW,290,4.0,22.0,52,0.00,,,0.00,Wunderground v.1.15,2013-12-30 17:28:00,
2013-12-30 12:29:00,34.7,18.4,29.98,WNW,288,8.0,22.0,51,0.00,,,0.00,Wunderground v.1.15,2013-12-30 17:29:00,
2013-12-30 12:31:00,34.6,18.3,29.98,West,279,11.0,23.0,51,0.00,,,0.00,Wunderground v.1.15,2013-12-30 17:31:00,
2013-12-30 12:32:00,34.5,18.2,29.98,WSW,246,4.0,23.0,51,0.00,,,0.00,Wunderground v.1.15,2013-12-30 17:32:00,
2013-12-30 12:33:00,34.5,18.2,29.98,North,355,2.0,23.0,51,0.00,,,0.00,Wunderground v.1.15,2013-12-30 17:33:00,
2013-12-30 12:34:00,34.5,18.7,29.98,West,269,7.0,23.0,52,0.00,,,0.00,Wunderground v.1.15,2013-12-30 17:34:00,
2013-12-30 12:37:00,34.5,18.7,29.98,NW,308,12.0,23.0,52,0.00,,,0.00,Wunderground v.1.15,2013-12-30 17:37:00,
2013-12-30 12:38:00,34.5,18.2,29.98,NNE,24,12.0,23.0,51,0.00,,,0.00,Wunderground v.1.15,2013-12-30 17:38:00,
2013-12-30 12:39:00,34.5,17.8,29.98,West,259,22.0,23.0,50,0.00,,,0.00,Wunderground v.1.15,2013-12-30 17:39:00,
2013-12-30 12:42:00,34.4,17.2,29.98,West,273,9.0,23.0,49,0.00,,,0.00,Wunderground v.1.15,2013-12-30 17:42:00,
2013-12-30 12:43:00,34.4,17.7,29.98,WNW,284,8.0,23.0,50,0.00,,,0.00,Wunderground v.1.15,2013-12-30 17:43:00,
2013-12-30 12:44:00,34.4,17.7,29.98,NW,306,9.0,23.0,50,0.00,,,0.00,Wunderground v.1.15,2013-12-30 17:44:00,
2013-12-30 12:45:00,34.4,17.7,29.98,NW,309,9.0,23.0,50,0.00,,,0.00,Wunderground v.1.15,2013-12-30 17:45:00,
2013-12-30 12:47:00,34.5,17.8,29.98,WSW,255,7.0,23.0,50,0.00,,,0.00,Wunderground v.1.15,2013-12-30 17:47:00,
2013-12-30 12:48:00,34.6,17.8,29.98,WNW,300,11.0,23.0,50,0.00,,,0.00,Wunderground v.1.15,2013-12-30 17:48:00,
2013-12-30 12:49:00,34.6,18.3,29.98,NNW,329,12.0,23.0,51,0.00,,,0.00,Wunderground v.1.15,2013-12-30 17:49:00,
2013-12-30 12:50:00,34.6,17.8,29.98,West,277,4.0,9.0,50,0.00,,,0.00,Wunderground v.1.15,2013-12-30 17:50:00,
2013-12-30 12:52:00,34.7,17.9,29.98,West,259,12.0,13.0,50,0.00,,,0.00,Wunderground v.1.15,2013-12-30 17:52:00,
2013-12-30 12:54:00,34.8,18.0,29.98,WNW,303,8.0,14.0,50,0.00,,,0.00,Wunderground v.1.15,2013-12-30 17:54:00,
2013-12-30 12:55:00,34.8,17.6,29.98,NW,311,11.0,17.0,49,0.00,,,0.00,Wunderground v.1.15,2013-12-30 17:55:00,
2013-12-30 12:56:00,34.7,17.5,29.98,NW,304,5.0,20.0,49,0.00,,,0.00,Wunderground v.1.15,2013-12-30 17:56:00,
2013-12-30 12:58:00,34.8,18.0,29.98,WNW,297,9.0,20.0,50,0.00,,,0.00,Wunderground v.1.15,2013-12-30 17:58:00,
2013-12-30 12:59:00,34.8,17.1,29.98,WNW,295,7.0,20.0,48,0.00,,,0.00,Wunderground v.1.15,2013-12-30 17:59:00,
2013-12-30 13:00:00,34.8,17.1,29.98,NNW,342,3.0,9.0,48,0.00,,,0.00,Wunderground v.1.15,2013-12-30 18:00:00,
2013-12-30 13:01:00,34.9,17.7,29.99,WSW,256,9.0,13.0,49,0.00,,,0.00,Wunderground v.1.15,2013-12-30 18:01:00,
2013-12-30 13:03:00,34.9,17.7,29.99,WNW,289,7.0,13.0,49,0.00,,,0.00,Wunderground v.1.15,2013-12-30 18:03:00,
2013-12-30 13:04:00,34.9,17.2,29.99,NW,315,17.0,17.0,48,0.00,,,0.00,Wunderground v.1.15,2013-12-30 18:04:00,
2013-12-30 13:05:00,34.8,16.6,29.99,NNE,16,7.0,17.0,47,0.00,,,0.00,Wunderground v.1.15,2013-12-30 18:05:00,
2013-12-30 13:07:00,34.9,17.2,29.99,West,262,8.0,17.0,48,0.00,,,0.00,Wunderground v.1.15,2013-12-30 18:07:00,
2013-12-30 13:08:00,34.8,16.1,29.99,NW,305,8.0,20.0,46,0.00,,,0.00,Wunderground v.1.15,2013-12-30 18:08:00,
2013-12-30 13:09:00,34.8,16.6,29.99,WSW,248,10.0,20.0,47,0.00,,,0.00,Wunderground v.1.15,2013-12-30 18:09:00,
2013-12-30 13:11:00,34.7,16.0,29.99,WNW,286,8.0,18.0,46,0.00,,,0.00,Wunderground v.1.15,2013-12-30 18:11:00,
2013-12-30 13:12:00,34.7,16.5,29.99,West,260,9.0,18.0,47,0.00,,,0.00,Wunderground v.1.15,2013-12-30 18:12:00,
2013-12-30 13:13:00,34.6,16.4,29.99,NW,321,13.0,22.0,47,0.00,,,0.00,Wunderground v.1.15,2013-12-30 18:13:00,
2013-12-30 13:14:00,34.7,16.5,29.99,WSW,238,4.0,22.0,47,0.00,,,0.00,Wunderground v.1.15,2013-12-30 18:14:00,
2013-12-30 13:16:00,34.7,17.0,29.99,West,269,12.0,22.0,48,0.00,,,0.00,Wunderground v.1.15,2013-12-30 18:16:00,
2013-12-30 13:17:00,34.7,17.0,29.99,WNW,302,5.0,22.0,48,0.00,,,0.00,Wunderground v.1.15,2013-12-30 18:17:00,
2013-12-30 13:18:00,34.8,17.1,29.99,West,272,2.0,22.0,48,0.00,,,0.00,Wunderground v.1.15,2013-12-30 18:18:00,
2013-12-30 13:19:00,34.8,17.1,29.99,WNW,292,10.0,22.0,48,0.00,,,0.00,Wunderground v.1.15,2013-12-30 18:19:00,
2013-12-30 13:21:00,34.9,17.2,29.99,North,360,3.0,11.0,48,0.00,,,0.00,Wunderground v.1.15,2013-12-30 18:21:00,
2013-12-30 13:22:00,34.9,17.2,29.99,WNW,293,3.0,13.0,48,0.00,,,0.00,Wunderground v.1.15,2013-12-30 18:22:00,
2013-12-30 13:23:00,35.0,17.3,29.99,SW,231,8.0,13.0,48,0.00,,,0.00,Wunderground v.1.15,2013-12-30 18:23:00,
2013-12-30 13:24:00,35.0,17.7,29.99,WSW,251,13.0,13.0,49,0.00,,,0.00,Wunderground v.1.15,2013-12-30 18:24:00,
2013-12-30 13:26:00,35.1,17.8,29.99,WNW,285,10.0,14.0,49,0.00,,,0.00,Wunderground v.1.15,2013-12-30 18:26:00,
2013-12-30 13:27:00,35.1,17.8,29.99,WNW,286,14.0,14.0,49,0.00,,,0.00,Wunderground v.1.15,2013-12-30 18:27:00,
2013-12-30 13:28:00,35.1,16.9,29.99,SW,219,8.0,16.0,47,0.00,,,0.00,Wunderground v.1.15,2013-12-30 18:28:00,
2013-12-30 13:29:00,35.0,16.3,29.99,West,278,6.0,16.0,46,0.00,,,0.00,Wunderground v.1.15,2013-12-30 18:29:00,
2013-12-30 13:32:00,35.1,16.9,30.00,WSW,255,11.0,12.0,47,0.00,,,0.00,Wunderground v.1.15,2013-12-30 18:32:00,
2013-12-30 13:33:00,35.1,17.4,30.00,West,259,13.0,17.0,48,0.00,,,0.00,Wunderground v.1.15,2013-12-30 18:33:00,
2013-12-30 13:34:00,35.1,17.4,30.00,SW,232,7.0,17.0,48,0.00,,,0.00,Wunderground v.1.15,2013-12-30 18:34:00,
2013-12-30 13:37:00,35.0,17.3,30.00,West,267,8.0,17.0,48,0.00,,,0.00,Wunderground v.1.15,2013-12-30 18:37:00,
2013-12-30 13:38:00,34.9,17.2,30.00,WNW,296,7.0,17.0,48,0.00,,,0.00,Wunderground v.1.15,2013-12-30 18:38:00,
2013-12-30 13:39:00,34.9,17.2,30.00,West,263,7.0,17.0,48,0.00,,,0.00,Wunderground v.1.15,2013-12-30 18:39:00,
2013-12-30 13:42:00,34.8,17.1,30.00,WSW,258,2.0,16.0,48,0.00,,,0.00,Wunderground v.1.15,2013-12-30 18:42:00,
2013-12-30 13:43:00,34.7,17.0,30.00,WNW,286,4.0,16.0,48,0.00,,,0.00,Wunderground v.1.15,2013-12-30 18:43:00,
2013-12-30 13:45:00,34.7,17.5,30.00,North,355,9.0,16.0,49,0.00,,,0.00,Wunderground v.1.15,2013-12-30 18:45:00,
2013-12-30 13:47:00,34.6,17.4,30.00,NW,305,14.0,20.0,49,0.00,,,0.00,Wunderground v.1.15,2013-12-30 18:47:00,
2013-12-30 13:48:00,34.5,16.3,30.00,NW,317,9.0,20.0,47,0.00,,,0.00,Wunderground v.1.15,2013-12-30 18:48:00,
2013-12-30 13:50:00,34.4,16.2,30.00,NW,308,7.0,10.0,47,0.00,,,0.00,Wunderground v.1.15,2013-12-30 18:50:00,
2013-12-30 13:53:00,34.4,16.2,30.00,West,263,3.0,17.0,47,0.00,,,0.00,Wunderground v.1.15,2013-12-30 18:53:00,
2013-12-30 13:55:00,34.4,16.2,30.00,NW,311,11.0,17.0,47,0.00,,,0.00,Wunderground v.1.15,2013-12-30 18:55:00,
2013-12-30 13:58:00,34.2,15.0,30.01,SW,232,6.0,19.0,45,0.00,,,0.00,Wunderground v.1.15,2013-12-30 18:58:00,
2013-12-30 13:59:00,34.2,15.0,30.01,WSW,257,10.0,19.0,45,0.00,,,0.00,Wunderground v.1.15,2013-12-30 18:59:00,
2013-12-30 14:00:00,34.3,15.6,30.01,NW,320,8.0,13.0,46,0.00,,,0.00,Wunderground v.1.15,2013-12-30 19:00:00,
2013-12-30 14:03:00,34.4,16.2,30.01,WSW,250,3.0,13.0,47,0.00,,,0.00,Wunderground v.1.15,2013-12-30 19:03:00,
2013-12-30 14:04:00,34.5,16.8,30.01,NW,323,2.0,13.0,48,0.00,,,0.00,Wunderground v.1.15,2013-12-30 19:04:00,
2013-12-30 14:05:00,34.6,16.4,30.01,NW,313,4.0,13.0,47,0.00,,,0.00,Wunderground v.1.15,2013-12-30 19:05:00,
2013-12-30 14:06:00,34.7,15.5,30.01,NNW,327,13.0,14.0,45,0.00,,,0.00,Wunderground v.1.15,2013-12-30 19:06:00,
2013-12-30 14:08:00,34.6,15.4,30.02,WSW,253,4.0,16.0,45,0.00,,,0.00,Wunderground v.1.15,2013-12-30 19:08:00,
2013-12-30 14:09:00,34.6,15.4,30.02,WSW,257,7.0,16.0,45,0.00,,,0.00,Wunderground v.1.15,2013-12-30 19:09:00,
2013-12-30 14:10:00,34.5,14.8,30.02,NW,304,2.0,10.0,44,0.00,,,0.00,Wunderground v.1.15,2013-12-30 19:10:00,
2013-12-30 14:12:00,34.6,15.9,30.02,West,270,6.0,10.0,46,0.00,,,0.00,Wunderground v.1.15,2013-12-30 19:12:00,
2013-12-30 14:13:00,34.6,15.4,30.02,WNW,302,4.0,11.0,45,0.00,,,0.00,Wunderground v.1.15,2013-12-30 19:13:00,
2013-12-30 14:14:00,34.6,15.4,30.02,WNW,285,8.0,11.0,45,0.00,,,0.00,Wunderground v.1.15,2013-12-30 19:14:00,
2013-12-30 14:16:00,34.5,15.3,30.02,West,259,4.0,12.0,45,0.00,,,0.00,Wunderground v.1.15,2013-12-30 19:16:00,
2013-12-30 14:17:00,34.5,15.3,30.02,NW,323,12.0,13.0,45,0.00,,,0.00,Wunderground v.1.15,2013-12-30 19:17:00,
2013-12-30 14:18:00,34.4,15.2,30.02,West,275,8.0,13.0,45,0.00,,,0.00,Wunderground v.1.15,2013-12-30 19:18:00,
2013-12-30 14:19:00,34.4,15.2,30.02,NNW,348,3.0,13.0,45,0.00,,,0.00,Wunderground v.1.15,2013-12-30 19:19:00,
2013-12-30 14:20:00,34.4,15.2,30.02,SSW,197,4.0,7.0,45,0.00,,,0.00,Wunderground v.1.15,2013-12-30 19:20:00,
2013-12-30 14:21:00,34.3,15.1,30.02,West,281,4.0,7.0,45,0.00,,,0.00,Wunderground v.1.15,2013-12-30 19:21:00,
2013-12-30 14:22:00,34.2,15.0,30.02,NNW,347,5.0,16.0,45,0.00,,,0.00,Wunderground v.1.15,2013-12-30 19:22:00,
2013-12-30 14:23:00,34.1,14.9,30.02,SW,224,8.0,16.0,45,0.00,,,0.00,Wunderground v.1.15,2013-12-30 19:23:00,
2013-12-30 14:24:00,34.1,14.9,30.02,SW,232,8.0,16.0,45,0.00,,,0.00,Wunderground v.1.15,2013-12-30 19:24:00,
2013-12-30 14:25:00,34.0,14.9,30.01,WNW,285,6.0,16.0,45,0.00,,,0.00,Wunderground v.1.15,2013-12-30 19:25:00,
2013-12-30 14:26:00,34.0,14.9,30.02,West,263,6.0,16.0,45,0.00,,,0.00,Wunderground v.1.15,2013-12-30 19:26:00,
2013-12-30 14:27:00,34.0,14.9,30.02,West,276,14.0,16.0,45,0.00,,,0.00,Wunderground v.1.15,2013-12-30 19:27:00,
2013-12-30 14:28:00,33.9,14.3,30.02,West,281,9.0,16.0,44,0.00,,,0.00,Wunderground v.1.15,2013-12-30 19:28:00,
2013-12-30 14:29:00,33.9,14.3,30.02,WSW,247,9.0,22.0,44,0.00,,,0.00,Wunderground v.1.15,2013-12-30 19:29:00,
2013-12-30 14:30:00,33.8,14.7,30.02,West,274,7.0,11.0,45,0.00,,,0.00,Wunderground v.1.15,2013-12-30 19:30:00,
2013-12-30 14:31:00,33.8,14.7,30.02,NW,311,6.0,14.0,45,0.00,,,0.00,Wunderground v.1.15,2013-12-30 19:31:00,
2013-12-30 14:32:00,33.8,14.7,30.02,WNW,294,4.0,14.0,45,0.00,,,0.00,Wunderground v.1.15,2013-12-30 19:32:00,
2013-12-30 14:33:00,33.7,14.6,30.02,WNW,297,7.0,14.0,45,0.00,,,0.00,Wunderground v.1.15,2013-12-30 19:33:00,
2013-12-30 14:34:00,33.7,14.6,30.03,West,269,11.0,14.0,45,0.00,,,0.00,Wunderground v.1.15,2013-12-30 19:34:00,
2013-12-30 14:35:00,33.7,14.6,30.03,West,263,15.0,17.0,45,0.00,,,0.00,Wunderground v.1.15,2013-12-30 19:35:00,
2013-12-30 14:36:00,33.6,14.5,30.03,West,263,7.0,17.0,45,0.00,,,0.00,Wunderground v.1.15,2013-12-30 19:36:00,
2013-12-30 14:37:00,33.5,14.9,30.03,North,5,6.0,17.0,46,0.00,,,0.00,Wunderground v.1.15,2013-12-30 19:37:00,
2013-12-30 14:39:00,33.5,14.4,30.03,WSW,243,9.0,17.0,45,0.00,,,0.00,Wunderground v.1.15,2013-12-30 19:39:00,
2013-12-30 14:40:00,33.4,13.8,30.03,West,274,4.0,8.0,44,0.00,,,0.00,Wunderground v.1.15,2013-12-30 19:40:00,
2013-12-30 14:41:00,33.3,13.7,30.03,WSW,243,5.0,10.0,44,0.00,,,0.00,Wunderground v.1.15,2013-12-30 19:41:00,
2013-12-30 14:43:00,33.3,14.2,30.03,WNW,283,3.0,13.0,45,0.00,,,0.00,Wunderground v.1.15,2013-12-30 19:43:00,
2013-12-30 14:44:00,33.2,14.6,30.03,SW,235,2.0,13.0,46,0.00,,,0.00,Wunderground v.1.15,2013-12-30 19:44:00,
2013-12-30 14:45:00,33.2,14.6,30.03,WNW,303,4.0,15.0,46,0.00,,,0.00,Wunderground v.1.15,2013-12-30 19:45:00,
2013-12-30 14:46:00,33.2,13.6,30.03,NW,313,9.0,15.0,44,0.00,,,0.00,Wunderground v.1.15,2013-12-30 19:46:00,
2013-12-30 14:47:00,33.1,13.5,30.03,West,273,4.0,15.0,44,0.00,,,0.00,Wunderground v.1.15,2013-12-30 19:47:00,
2013-12-30 14:48:00,33.1,13.5,30.03,SW,223,2.0,15.0,44,0.00,,,0.00,Wunderground v.1.15,2013-12-30 19:48:00,
2013-12-30 14:49:00,33.0,13.9,30.03,West,269,9.0,15.0,45,0.00,,,0.00,Wunderground v.1.15,2013-12-30 19:49:00,
2013-12-30 14:50:00,33.0,13.4,30.03,West,277,11.0,11.0,44,0.00,,,0.00,Wunderground v.1.15,2013-12-30 19:50:00,
2013-12-30 14:51:00,33.0,13.4,30.04,WNW,282,2.0,11.0,44,0.00,,,0.00,Wunderground v.1.15,2013-12-30 19:51:00,
2013-12-30 14:52:00,32.9,13.9,30.04,SW,234,4.0,11.0,45,0.00,,,0.00,Wunderground v.1.15,2013-12-30 19:52:00,
2013-12-30 14:53:00,32.9,14.4,30.04,WSW,256,9.0,11.0,46,0.00,,,0.00,Wunderground v.1.15,2013-12-30 19:53:00,
2013-12-30 14:54:00,32.9,13.9,30.04,NW,315,9.0,11.0,45,0.00,,,0.00,Wunderground v.1.15,2013-12-30 19:54:00,
2013-12-30 14:55:00,32.9,13.3,30.04,West,269,6.0,11.0,44,0.00,,,0.00,Wunderground v.1.15,2013-12-30 19:55:00,
2013-12-30 14:57:00,32.9,13.9,30.04,WNW,288,8.0,11.0,45,0.00,,,0.00,Wunderground v.1.15,2013-12-30 19:57:00,
2013-12-30 14:59:00,32.8,13.2,30.04,WNW,295,9.0,16.0,44,0.00,,,0.00,Wunderground v.1.15,2013-12-30 19:59:00,
2013-12-30 15:01:00,32.8,12.7,30.04,WNW,290,7.0,16.0,43,0.00,,,0.00,Wunderground v.1.15,2013-12-30 20:01:00,
2013-12-30 15:02:00,32.7,13.2,30.05,West,275,9.0,16.0,44,0.00,,,0.00,Wunderground v.1.15,2013-12-30 20:02:00,
2013-12-30 15:04:00,32.6,12.5,30.05,WNW,289,8.0,16.0,43,0.00,,,0.00,Wunderground v.1.15,2013-12-30 20:04:00,
2013-12-30 15:05:00,32.6,12.5,30.05,WNW,285,8.0,16.0,43,0.00,,,0.00,Wunderground v.1.15,2013-12-30 20:05:00,
2013-12-30 15:06:00,32.6,12.5,30.05,West,267,7.0,16.0,43,0.00,,,0.00,Wunderground v.1.15,2013-12-30 20:06:00,
2013-12-30 15:07:00,32.5,12.5,30.05,West,261,3.0,16.0,43,0.00,,,0.00,Wunderground v.1.15,2013-12-30 20:07:00,
2013-12-30 15:09:00,32.4,12.4,30.05,WSW,247,3.0,16.0,43,0.00,,,0.00,Wunderground v.1.15,2013-12-30 20:09:00,
2013-12-30 15:10:00,32.4,13.4,30.05,WSW,239,8.0,8.0,45,0.00,,,0.00,Wunderground v.1.15,2013-12-30 20:10:00,
2013-12-30 15:11:00,32.4,13.4,30.05,WSW,241,8.0,8.0,45,0.00,,,0.00,Wunderground v.1.15,2013-12-30 20:11:00,
2013-12-30 15:12:00,32.3,13.3,30.05,South,183,8.0,12.0,45,0.00,,,0.00,Wunderground v.1.15,2013-12-30 20:12:00,
2013-12-30 15:13:00,32.3,12.3,30.06,WSW,257,9.0,15.0,43,0.00,,,0.00,Wunderground v.1.15,2013-12-30 20:13:00,
2013-12-30 15:14:00,32.2,12.7,30.06,WNW,289,5.0,15.0,44,0.00,,,0.00,Wunderground v.1.15,2013-12-30 20:14:00,
2013-12-30 15:15:00,32.2,12.7,30.06,West,262,4.0,15.0,44,0.00,,,0.00,Wunderground v.1.15,2013-12-30 20:15:00,
2013-12-30 15:16:00,32.1,13.1,30.06,WNW,298,4.0,15.0,45,0.00,,,0.00,Wunderground v.1.15,2013-12-30 20:16:00,
2013-12-30 15:17:00,32.1,12.6,30.06,SW,236,2.0,15.0,44,0.00,,,0.00,Wunderground v.1.15,2013-12-30 20:17:00,
2013-12-30 15:18:00,32.1,12.6,30.06,WNW,303,4.0,15.0,44,0.00,,,0.00,Wunderground v.1.15,2013-12-30 20:18:00,
2013-12-30 15:19:00,32.1,12.6,30.06,NW,319,4.0,15.0,44,0.00,,,0.00,Wunderground v.1.15,2013-12-30 20:19:00,
2013-12-30 15:20:00,32.1,13.1,30.06,NNW,346,5.0,15.0,45,0.00,,,0.00,Wunderground v.1.15,2013-12-30 20:20:00,
2013-12-30 15:21:00,32.0,12.5,30.06,SW,233,4.0,8.0,44,0.00,,,0.00,Wunderground v.1.15,2013-12-30 20:21:00,
2013-12-30 15:22:00,32.0,12.5,30.06,West,280,7.0,14.0,44,0.00,,,0.00,Wunderground v.1.15,2013-12-30 20:22:00,
2013-12-30 15:23:00,32.0,12.5,30.06,West,263,7.0,14.0,44,0.00,,,0.00,Wunderground v.1.15,2013-12-30 20:23:00,
2013-12-30 15:24:00,31.9,12.4,30.06,WSW,257,5.0,14.0,44,0.00,,,0.00,Wunderground v.1.15,2013-12-30 20:24:00,
2013-12-30 15:25:00,31.9,12.4,30.06,NNW,333,3.0,14.0,44,0.00,,,0.00,Wunderground v.1.15,2013-12-30 20:25:00,
2013-12-30 15:26:00,31.8,12.3,30.06,WSW,254,2.0,14.0,44,0.00,,,0.00,Wunderground v.1.15,2013-12-30 20:26:00,
2013-12-30 15:27:00,31.8,12.8,30.06,WNW,290,5.0,14.0,45,0.00,,,0.00,Wunderground v.1.15,2013-12-30 20:27:00,
2013-12-30 15:28:00,31.7,12.2,30.06,West,264,3.0,14.0,44,0.00,,,0.00,Wunderground v.1.15,2013-12-30 20:28:00,
2013-12-30 15:29:00,31.7,12.8,30.06,West,277,4.0,14.0,45,0.00,,,0.00,Wunderground v.1.15,2013-12-30 20:29:00,
2013-12-30 15:30:00,31.7,12.8,30.06,NW,306,12.0,14.0,45,0.00,,,0.00,Wunderground v.1.15,2013-12-30 20:30:00,
2013-12-30 15:31:00,31.6,12.2,30.07,West,276,9.0,14.0,44,0.00,,,0.00,Wunderground v.1.15,2013-12-30 20:31:00,
2013-12-30 15:32:00,31.6,12.2,30.07,WSW,255,11.0,14.0,44,0.00,,,0.00,Wunderground v.1.15,2013-12-30 20:32:00,
2013-12-30 15:33:00,31.5,12.1,30.07,WSW,248,5.0,16.0,44,0.00,,,0.00,Wunderground v.1.15,2013-12-30 20:33:00,
2013-12-30 15:34:00,31.5,11.5,30.07,WSW,243,5.0,16.0,43,0.00,,,0.00,Wunderground v.1.15,2013-12-30 20:34:00,
2013-12-30 15:35:00,31.4,11.5,30.07,WSW,254,11.0,16.0,43,0.00,,,0.00,Wunderground v.1.15,2013-12-30 20:35:00,
2013-12-30 15:37:00,31.3,11.4,30.07,WNW,283,6.0,16.0,43,0.00,,,0.00,Wunderground v.1.15,2013-12-30 20:37:00,
2013-12-30 15:39:00,31.3,11.9,30.07,NW,309,3.0,16.0,44,0.00,,,0.00,Wunderground v.1.15,2013-12-30 20:39:00,
2013-12-30 15:40:00,31.2,11.8,30.07,WSW,258,4.0,7.0,44,0.00,,,0.00,Wunderground v.1.15,2013-12-30 20:40:00,
2013-12-30 15:42:00,31.2,12.3,30.07,WNW,290,4.0,12.0,45,0.00,,,0.00,Wunderground v.1.15,2013-12-30 20:42:00,
2013-12-30 15:44:00,31.1,11.7,30.07,SW,224,3.0,12.0,44,0.00,,,0.00,Wunderground v.1.15,2013-12-30 20:44:00,
2013-12-30 15:45:00,31.1,11.7,30.07,WNW,292,4.0,12.0,44,0.00,,,0.00,Wunderground v.1.15,2013-12-30 20:45:00,
2013-12-30 15:47:00,31.0,12.1,30.07,SW,231,1.0,12.0,45,0.00,,,0.00,Wunderground v.1.15,2013-12-30 20:47:00,
2013-12-30 15:49:00,31.0,12.1,30.08,WNW,298,9.0,13.0,45,0.00,,,0.00,Wunderground v.1.15,2013-12-30 20:49:00,
2013-12-30 15:50:00,30.9,11.5,30.08,West,275,4.0,11.0,44,0.00,,,0.00,Wunderground v.1.15,2013-12-30 20:50:00,
2013-12-30 15:52:00,30.9,14.0,30.08,NW,323,8.0,11.0,49,0.00,,,0.00,Wunderground v.1.15,2013-12-30 20:52:00,
2013-12-30 15:53:00,31.0,13.6,30.08,WNW,288,5.0,11.0,48,0.00,,,0.00,Wunderground v.1.15,2013-12-30 20:53:00,
2013-12-30 15:55:00,31.0,14.0,30.08,NW,317,2.0,11.0,49,0.00,,,0.00,Wunderground v.1.15,2013-12-30 20:55:00,
2013-12-30 15:56:00,31.0,14.0,30.08,West,270,1.0,11.0,49,0.00,,,0.00,Wunderground v.1.15,2013-12-30 20:56:00,
2013-12-30 15:57:00,31.0,15.4,30.08,West,262,6.0,11.0,52,0.00,,,0.00,Wunderground v.1.15,2013-12-30 20:57:00,
2013-12-30 15:58:00,30.9,12.5,30.08,West,277,3.0,11.0,46,0.00,,,0.00,Wunderground v.1.15,2013-12-30 20:58:00,
2013-12-30 16:00:00,30.9,14.4,30.08,WNW,303,8.0,10.0,50,0.00,,,0.00,Wunderground v.1.15,2013-12-30 21:00:00,
2013-12-30 16:01:00,30.8,12.9,30.08,West,268,6.0,10.0,47,0.00,,,0.00,Wunderground v.1.15,2013-12-30 21:01:00,
2013-12-30 16:02:00,30.8,13.4,30.08,WNW,300,4.0,10.0,48,0.00,,,0.00,Wunderground v.1.15,2013-12-30 21:02:00,
2013-12-30 16:03:00,30.8,13.9,30.08,NW,315,10.0,10.0,49,0.00,,,0.00,Wunderground v.1.15,2013-12-30 21:03:00,
2013-12-30 16:05:00,30.7,13.3,30.08,West,262,3.0,10.0,48,0.00,,,0.00,Wunderground v.1.15,2013-12-30 21:05:00,
2013-12-30 16:06:00,30.6,12.2,30.09,West,279,9.0,13.0,46,0.00,,,0.00,Wunderground v.1.15,2013-12-30 21:06:00,
2013-12-30 16:07:00,30.5,12.2,30.09,West,273,4.0,13.0,46,0.00,,,0.00,Wunderground v.1.15,2013-12-30 21:07:00,
2013-12-30 16:08:00,30.4,12.1,30.09,West,279,10.0,13.0,46,0.00,,,0.00,Wunderground v.1.15,2013-12-30 21:08:00,
2013-12-30 16:10:00,30.4,13.5,30.09,West,271,10.0,15.0,49,0.00,,,0.00,Wunderground v.1.15,2013-12-30 21:10:00,
2013-12-30 16:11:00,30.4,14.0,30.09,West,269,4.0,15.0,50,0.00,,,0.00,Wunderground v.1.15,2013-12-30 21:11:00,
2013-12-30 16:12:00,30.3,12.5,30.09,WSW,255,4.0,15.0,47,0.00,,,0.00,Wunderground v.1.15,2013-12-30 21:12:00,
2013-12-30 16:13:00,30.3,12.5,30.09,West,262,6.0,15.0,47,0.00,,,0.00,Wunderground v.1.15,2013-12-30 21:13:00,
2013-12-30 16:15:00,30.2,13.8,30.09,South,189,7.0,15.0,50,0.00,,,0.00,Wunderground v.1.15,2013-12-30 21:15:00,
2013-12-30 16:16:00,30.2,13.3,30.10,WSW,244,7.0,16.0,49,0.00,,,0.00,Wunderground v.1.15,2013-12-30 21:16:00,
2013-12-30 16:17:00,30.2,15.1,30.10,NW,309,4.0,16.0,53,0.00,,,0.00,Wunderground v.1.15,2013-12-30 21:17:00,
2013-12-30 16:18:00,30.2,14.2,30.10,WNW,294,4.0,16.0,51,0.00,,,0.00,Wunderground v.1.15,2013-12-30 21:18:00,
2013-12-30 16:20:00,30.1,12.7,30.09,WNW,301,3.0,7.0,48,0.00,,,0.00,Wunderground v.1.15,2013-12-30 21:20:00,
2013-12-30 16:21:00,30.0,12.7,30.09,NNW,333,9.0,10.0,48,0.00,,,0.00,Wunderground v.1.15,2013-12-30 21:21:00,
2013-12-30 16:22:00,30.0,12.7,30.10,West,267,8.0,10.0,48,0.00,,,0.00,Wunderground v.1.15,2013-12-30 21:22:00,
2013-12-30 16:23:00,30.0,15.3,30.10,West,260,4.0,11.0,54,0.00,,,0.00,Wunderground v.1.15,2013-12-30 21:23:00,
2013-12-30 16:25:00,29.8,12.5,30.10,WNW,282,6.0,17.0,48,0.00,,,0.00,Wunderground v.1.15,2013-12-30 21:25:00,
2013-12-30 16:27:00,29.6,11.8,30.10,West,265,6.0,17.0,47,0.00,,,0.00,Wunderground v.1.15,2013-12-30 21:27:00,
2013-12-30 16:28:00,29.5,11.7,30.10,WSW,242,13.0,17.0,47,0.00,,,0.00,Wunderground v.1.15,2013-12-30 21:28:00,
2013-12-30 16:29:00,29.4,11.1,30.10,WNW,293,5.0,17.0,46,0.00,,,0.00,Wunderground v.1.15,2013-12-30 21:29:00,
2013-12-30 16:31:00,29.3,12.0,30.11,NNW,340,6.0,10.0,48,0.00,,,0.00,Wunderground v.1.15,2013-12-30 21:31:00,
2013-12-30 16:32:00,29.2,11.9,30.11,NNE,30,2.0,10.0,48,0.00,,,0.00,Wunderground v.1.15,2013-12-30 21:32:00,
2013-12-30 16:33:00,29.2,12.4,30.11,WSW,241,9.0,13.0,49,0.00,,,0.00,Wunderground v.1.15,2013-12-30 21:33:00,
2013-12-30 16:34:00,29.1,11.8,30.11,WSW,254,4.0,13.0,48,0.00,,,0.00,Wunderground v.1.15,2013-12-30 21:34:00,
2013-12-30 16:37:00,29.0,12.2,30.11,SW,233,7.0,13.0,49,0.00,,,0.00,Wunderground v.1.15,2013-12-30 21:37:00,
2013-12-30 16:38:00,29.0,11.7,30.11,NW,313,4.0,13.0,48,0.00,,,0.00,Wunderground v.1.15,2013-12-30 21:38:00,
2013-12-30 16:39:00,28.9,12.1,30.12,WNW,296,9.0,13.0,49,0.00,,,0.00,Wunderground v.1.15,2013-12-30 21:39:00,
2013-12-30 16:42:00,28.8,12.5,30.11,SSE,167,5.0,12.0,50,0.00,,,0.00,Wunderground v.1.15,2013-12-30 21:42:00,
2013-12-30 16:43:00,28.8,12.5,30.11,West,270,11.0,12.0,50,0.00,,,0.00,Wunderground v.1.15,2013-12-30 21:43:00,
2013-12-30 16:44:00,28.7,11.9,30.11,WSW,250,7.0,12.0,49,0.00,,,0.00,Wunderground v.1.15,2013-12-30 21:44:00,
2013-12-30 16:47:00,28.6,12.3,30.12,West,270,2.0,12.0,50,0.00,,,0.00,Wunderground v.1.15,2013-12-30 21:47:00,
2013-12-30 16:48:00,28.6,12.3,30.12,West,267,3.0,12.0,50,0.00,,,0.00,Wunderground v.1.15,2013-12-30 21:48:00,
2013-12-30 16:49:00,28.6,12.7,30.12,NNE,28,3.0,12.0,51,0.00,,,0.00,Wunderground v.1.15,2013-12-30 21:49:00,
2013-12-30 16:50:00,28.7,16.9,30.12,West,274,3.0,6.0,61,0.00,,,0.00,Wunderground v.1.15,2013-12-30 21:50:00,
2013-12-30 16:52:00,28.8,14.2,30.12,WNW,301,4.0,8.0,54,0.00,,,0.00,Wunderground v.1.15,2013-12-30 21:52:00,
2013-12-30 16:53:00,28.8,15.1,30.12,West,263,6.0,9.0,56,0.00,,,0.00,Wunderground v.1.15,2013-12-30 21:53:00,
2013-12-30 16:54:00,28.8,15.1,30.12,West,261,6.0,9.0,56,0.00,,,0.00,Wunderground v.1.15,2013-12-30 21:54:00,
2013-12-30 16:55:00,28.7,13.3,30.12,NNW,331,9.0,13.0,52,0.00,,,0.00,Wunderground v.1.15,2013-12-30 21:55:00,
2013-12-30 16:57:00,28.5,12.6,30.13,WNW,292,7.0,13.0,51,0.00,,,0.00,Wunderground v.1.15,2013-12-30 21:57:00,
2013-12-30 16:58:00,28.4,12.6,30.12,WSW,244,8.0,13.0,51,0.00,,,0.00,Wunderground v.1.15,2013-12-30 21:58:00,
2013-12-30 16:59:00,28.4,12.6,30.12,NW,315,3.0,13.0,51,0.00,,,0.00,Wunderground v.1.15,2013-12-30 21:59:00,
2013-12-30 17:00:00,28.3,12.5,30.12,WNW,301,2.0,6.0,51,0.00,,,0.00,Wunderground v.1.15,2013-12-30 22:00:00,
2013-12-30 17:01:00,28.3,12.9,30.12,North,350,1.0,6.0,52,0.00,,,0.00,Wunderground v.1.15,2013-12-30 22:01:00,
2013-12-30 17:03:00,28.2,12.8,30.13,West,272,6.0,12.0,52,0.00,,,0.00,Wunderground v.1.15,2013-12-30 22:03:00,
2013-12-30 17:04:00,28.1,12.7,30.13,NW,304,7.0,12.0,52,0.00,,,0.00,Wunderground v.1.15,2013-12-30 22:04:00,
2013-12-30 17:05:00,28.1,12.7,30.13,WNW,298,5.0,12.0,52,0.00,,,0.00,Wunderground v.1.15,2013-12-30 22:05:00,
2013-12-30 17:06:00,28.0,12.6,30.13,WNW,298,7.0,12.0,52,0.00,,,0.00,Wunderground v.1.15,2013-12-30 22:06:00,
2013-12-30 17:08:00,28.0,13.1,30.13,WSW,250,1.0,12.0,53,0.00,,,0.00,Wunderground v.1.15,2013-12-30 22:08:00,
2013-12-30 17:09:00,27.9,12.5,30.13,SW,226,6.0,12.0,52,0.00,,,0.00,Wunderground v.1.15,2013-12-30 22:09:00,
2013-12-30 17:11:00,27.9,12.5,30.13,NW,313,6.0,9.0,52,0.00,,,0.00,Wunderground v.1.15,2013-12-30 22:11:00,
2013-12-30 17:13:00,27.8,12.4,30.13,WNW,297,9.0,11.0,52,0.00,,,0.00,Wunderground v.1.15,2013-12-30 22:13:00,
2013-12-30 17:14:00,27.8,12.0,30.13,WNW,298,10.0,14.0,51,0.00,,,0.00,Wunderground v.1.15,2013-12-30 22:14:00,
2013-12-30 17:15:00,27.8,12.0,30.13,WNW,296,10.0,14.0,51,0.00,,,0.00,Wunderground v.1.15,2013-12-30 22:15:00,
2013-12-30 17:16:00,27.8,12.0,30.13,West,273,3.0,14.0,51,0.00,,,0.00,Wunderground v.1.15,2013-12-30 22:16:00,
2013-12-30 17:17:00,27.7,12.3,30.13,NW,323,5.0,14.0,52,0.00,,,0.00,Wunderground v.1.15,2013-12-30 22:17:00,
2013-12-30 17:18:00,27.7,11.9,30.13,WNW,301,7.0,14.0,51,0.00,,,0.00,Wunderground v.1.15,2013-12-30 22:18:00,
2013-12-30 17:20:00,27.7,11.9,30.13,West,279,8.0,15.0,51,0.00,,,0.00,Wunderground v.1.15,2013-12-30 22:20:00,
2013-12-30 17:21:00,27.6,12.2,30.13,NNW,344,10.0,12.0,52,0.00,,,0.00,Wunderground v.1.15,2013-12-30 22:21:00,
2013-12-30 17:22:00,27.6,12.2,30.14,West,280,3.0,12.0,52,0.00,,,0.00,Wunderground v.1.15,2013-12-30 22:22:00,
2013-12-30 17:23:00,27.6,12.2,30.14,NW,319,3.0,14.0,52,0.00,,,0.00,Wunderground v.1.15,2013-12-30 22:23:00,
2013-12-30 17:25:00,27.5,12.2,30.14,West,272,3.0,14.0,52,0.00,,,0.00,Wunderground v.1.15,2013-12-30 22:25:00,
2013-12-30 17:26:00,27.5,12.2,30.14,NW,317,13.0,14.0,52,0.00,,,0.00,Wunderground v.1.15,2013-12-30 22:26:00,
2013-12-30 17:27:00,27.4,12.1,30.14,West,276,15.0,20.0,52,0.00,,,0.00,Wunderground v.1.15,2013-12-30 22:27:00,
2013-12-30 17:29:00,27.4,12.1,30.14,West,270,6.0,20.0,52,0.00,,,0.00,Wunderground v.1.15,2013-12-30 22:29:00,
2013-12-30 17:30:00,27.4,11.6,30.14,WSW,254,7.0,11.0,51,0.00,,,0.00,Wunderground v.1.15,2013-12-30 22:30:00,
2013-12-30 17:31:00,27.4,12.1,30.14,West,270,8.0,11.0,52,0.00,,,0.00,Wunderground v.1.15,2013-12-30 22:31:00,
2013-12-30 17:32:00,27.3,12.0,30.14,North,355,5.0,15.0,52,0.00,,,0.00,Wunderground v.1.15,2013-12-30 22:32:00,
2013-12-30 17:35:00,27.3,12.0,30.15,NNW,328,13.0,15.0,52,0.00,,,0.00,Wunderground v.1.15,2013-12-30 22:35:00,
2013-12-30 17:36:00,27.2,11.4,30.15,West,281,6.0,15.0,51,0.00,,,0.00,Wunderground v.1.15,2013-12-30 22:36:00,
2013-12-30 17:37:00,27.2,11.9,30.15,North,360,5.0,15.0,52,0.00,,,0.00,Wunderground v.1.15,2013-12-30 22:37:00,
2013-12-30 17:40:00,27.2,11.4,30.15,WNW,282,8.0,9.0,51,0.00,,,0.00,Wunderground v.1.15,2013-12-30 22:40:00,
2013-12-30 17:41:00,27.1,11.3,30.15,West,271,6.0,16.0,51,0.00,,,0.00,Wunderground v.1.15,2013-12-30 22:41:00,
2013-12-30 17:42:00,27.1,11.8,30.15,West,270,3.0,16.0,52,0.00,,,0.00,Wunderground v.1.15,2013-12-30 22:42:00,
2013-12-30 17:45:00,27.0,11.7,30.15,WNW,298,4.0,16.0,52,0.00,,,0.00,Wunderground v.1.15,2013-12-30 22:45:00,
2013-12-30 17:46:00,26.9,11.6,30.15,NNW,328,9.0,16.0,52,0.00,,,0.00,Wunderground v.1.15,2013-12-30 22:46:00,
2013-12-30 17:47:00,26.9,11.6,30.15,WSW,248,4.0,16.0,52,0.00,,,0.00,Wunderground v.1.15,2013-12-30 22:47:00,
2013-12-30 17:48:00,26.9,11.6,30.15,WNW,292,3.0,16.0,52,0.00,,,0.00,Wunderground v.1.15,2013-12-30 22:48:00,
2013-12-30 17:50:00,26.7,11.8,30.16,West,281,2.0,6.0,53,0.00,,,0.00,Wunderground v.1.15,2013-12-30 22:50:00,
2013-12-30 17:52:00,26.6,11.7,30.16,NW,318,11.0,13.0,53,0.00,,,0.00,Wunderground v.1.15,2013-12-30 22:52:00,
2013-12-30 17:53:00,26.6,11.7,30.16,North,360,4.0,13.0,53,0.00,,,0.00,Wunderground v.1.15,2013-12-30 22:53:00,
2013-12-30 17:55:00,26.5,11.7,30.16,WNW,292,3.0,13.0,53,0.00,,,0.00,Wunderground v.1.15,2013-12-30 22:55:00,
2013-12-30 17:56:00,26.5,11.7,30.16,West,274,6.0,13.0,53,0.00,,,0.00,Wunderground v.1.15,2013-12-30 22:56:00,
2013-12-30 17:57:00,26.5,11.7,30.16,WNW,295,3.0,13.0,53,0.00,,,0.00,Wunderground v.1.15,2013-12-30 22:57:00,
2013-12-30 17:58:00,26.4,12.0,30.16,WNW,296,9.0,13.0,54,0.00,,,0.00,Wunderground v.1.15,2013-12-30 22:58:00,
2013-12-30 18:00:00,26.3,11.5,30.16,West,259,6.0,9.0,53,0.00,,,0.00,Wunderground v.1.15,2013-12-30 23:00:00,
2013-12-30 18:01:00,26.2,11.8,30.16,West,261,3.0,10.0,54,0.00,,,0.00,Wunderground v.1.15,2013-12-30 23:01:00,
2013-12-30 18:02:00,26.2,11.8,30.16,West,264,8.0,12.0,54,0.00,,,0.00,Wunderground v.1.15,2013-12-30 23:02:00,
2013-12-30 18:03:00,26.2,11.8,30.16,NW,304,10.0,14.0,54,0.00,,,0.00,Wunderground v.1.15,2013-12-30 23:03:00,
2013-12-30 18:05:00,26.0,11.6,30.16,WNW,302,12.0,14.0,54,0.00,,,0.00,Wunderground v.1.15,2013-12-30 23:05:00,
2013-12-30 18:06:00,26.0,11.6,30.16,WNW,303,9.0,15.0,54,0.00,,,0.00,Wunderground v.1.15,2013-12-30 23:06:00,
2013-12-30 18:08:00,25.9,11.5,30.16,West,265,4.0,15.0,54,0.00,,,0.00,Wunderground v.1.15,2013-12-30 23:08:00,
2013-12-30 18:10:00,25.9,12.3,30.17,WNW,298,5.0,12.0,56,0.00,,,0.00,Wunderground v.1.15,2013-12-30 23:10:00,
2013-12-30 18:11:00,26.0,13.6,30.17,NW,323,6.0,12.0,59,0.00,,,0.00,Wunderground v.1.15,2013-12-30 23:11:00,
2013-12-30 18:13:00,25.9,12.3,30.17,West,280,6.0,12.0,56,0.00,,,0.00,Wunderground v.1.15,2013-12-30 23:13:00,
2013-12-30 18:14:00,26.0,12.8,30.17,WNW,290,8.0,13.0,57,0.00,,,0.00,Wunderground v.1.15,2013-12-30 23:14:00,
2013-12-30 18:16:00,25.8,11.8,30.17,NW,306,3.0,13.0,55,0.00,,,0.00,Wunderground v.1.15,2013-12-30 23:16:00,
2013-12-30 18:18:00,25.8,12.2,30.17,NW,304,3.0,13.0,56,0.00,,,0.00,Wunderground v.1.15,2013-12-30 23:18:00,
2013-12-30 18:19:00,25.8,13.4,30.17,West,262,10.0,13.0,59,0.00,,,0.00,Wunderground v.1.15,2013-12-30 23:19:00,
2013-12-30 18:20:00,25.8,13.4,30.17,NW,306,7.0,9.0,59,0.00,,,0.00,Wunderground v.1.15,2013-12-30 23:20:00,
2013-12-30 18:21:00,25.7,12.2,30.17,NW,309,8.0,10.0,56,0.00,,,0.00,Wunderground v.1.15,2013-12-30 23:21:00,
2013-12-30 18:23:00,25.7,11.7,30.17,NW,324,10.0,11.0,55,0.00,,,0.00,Wunderground v.1.15,2013-12-30 23:23:00,
2013-12-30 18:24:00,25.6,12.1,30.17,WNW,302,1.0,12.0,56,0.00,,,0.00,Wunderground v.1.15,2013-12-30 23:24:00,
2013-12-30 18:25:00,25.7,12.9,30.17,West,262,1.0,12.0,58,0.00,,,0.00,Wunderground v.1.15,2013-12-30 23:25:00,
2013-12-30 18:26:00,26.0,14.8,30.17,WSW,247,5.0,12.0,62,0.00,,,0.00,Wunderground v.1.15,2013-12-30 23:26:00,
2013-12-30 18:28:00,26.1,13.7,30.17,NNW,340,3.0,12.0,59,0.00,,,0.00,Wunderground v.1.15,2013-12-30 23:28:00,
2013-12-30 18:29:00,26.1,14.8,30.17,NW,319,5.0,12.0,62,0.00,,,0.00,Wunderground v.1.15,2013-12-30 23:29:00,
2013-12-30 18:30:00,26.1,15.2,30.17,NW,316,3.0,6.0,63,0.00,,,0.00,Wunderground v.1.15,2013-12-30 23:30:00,
2013-12-30 18:31:00,25.9,13.1,30.17,NW,309,7.0,11.0,58,0.00,,,0.00,Wunderground v.1.15,2013-12-30 23:31:00,
2013-12-30 18:32:00,25.9,13.1,30.17,NW,306,7.0,11.0,58,0.00,,,0.00,Wunderground v.1.15,2013-12-30 23:32:00,
2013-12-30 18:33:00,25.6,11.7,30.17,West,259,4.0,11.0,55,0.00,,,0.00,Wunderground v.1.15,2013-12-30 23:33:00,
2013-12-30 18:34:00,25.5,11.6,30.17,NNW,332,3.0,11.0,55,0.00,,,0.00,Wunderground v.1.15,2013-12-30 23:34:00,
2013-12-30 18:35:00,25.4,11.9,30.17,NW,306,5.0,11.0,56,0.00,,,0.00,Wunderground v.1.15,2013-12-30 23:35:00,
2013-12-30 18:37:00,25.3,11.8,30.18,NW,304,5.0,11.0,56,0.00,,,0.00,Wunderground v.1.15,2013-12-30 23:37:00,
2013-12-30 18:38:00,25.2,11.3,30.18,WNW,283,4.0,11.0,55,0.00,,,0.00,Wunderground v.1.15,2013-12-30 23:38:00,
2013-12-30 18:39:00,25.2,11.7,30.18,NNW,336,4.0,11.0,56,0.00,,,0.00,Wunderground v.1.15,2013-12-30 23:39:00,
2013-12-30 18:40:00,25.1,11.6,30.18,West,269,9.0,9.0,56,0.00,,,0.00,Wunderground v.1.15,2013-12-30 23:40:00,
2013-12-30 18:42:00,25.0,11.5,30.18,WNW,283,6.0,13.0,56,0.00,,,0.00,Wunderground v.1.15,2013-12-30 23:42:00,
2013-12-30 18:43:00,24.9,11.4,30.18,West,281,3.0,13.0,56,0.00,,,0.00,Wunderground v.1.15,2013-12-30 23:43:00,
2013-12-30 18:44:00,24.9,11.4,30.18,NW,319,2.0,13.0,56,0.00,,,0.00,Wunderground v.1.15,2013-12-30 23:44:00,
2013-12-30 18:45:00,24.9,11.4,30.18,WNW,283,4.0,13.0,56,0.00,,,0.00,Wunderground v.1.15,2013-12-30 23:45:00,
2013-12-30 18:47:00,24.8,11.7,30.18,WNW,298,2.0,13.0,57,0.00,,,0.00,Wunderground v.1.15,2013-12-30 23:47:00,
2013-12-30 18:48:00,24.7,11.6,30.18,West,261,6.0,13.0,57,0.00,,,0.00,Wunderground v.1.15,2013-12-30 23:48:00,
2013-12-30 18:49:00,24.7,11.6,30.18,WNW,301,7.0,13.0,57,0.00,,,0.00,Wunderground v.1.15,2013-12-30 23:49:00,
2013-12-30 18:50:00,24.7,11.2,30.18,NW,317,6.0,13.0,56,0.00,,,0.00,Wunderground v.1.15,2013-12-30 23:50:00,
2013-12-30 18:52:00,24.6,11.1,30.18,West,265,4.0,13.0,56,0.00,,,0.00,Wunderground v.1.15,2013-12-30 23:52:00,
2013-12-30 18:54:00,24.5,11.0,30.18,NW,311,2.0,13.0,56,0.00,,,0.00,Wunderground v.1.15,2013-12-30 23:54:00,
2013-12-30 18:55:00,24.5,11.0,30.18,West,269,4.0,13.0,56,0.00,,,0.00,Wunderground v.1.15,2013-12-30 23:55:00,
2013-12-30 18:56:00,24.4,10.9,30.18,NNE,32,3.0,13.0,56,0.00,,,0.00,Wunderground v.1.15,2013-12-30 23:56:00,
2013-12-30 18:58:00,24.4,10.9,30.18,WNW,297,8.0,14.0,56,0.00,,,0.00,Wunderground v.1.15,2013-12-30 23:58:00,
2013-12-30 18:59:00,24.3,10.8,30.18,NW,306,5.0,14.0,56,0.00,,,0.00,Wunderground v.1.15,2013-12-30 23:59:00,
2013-12-30 19:00:00,24.3,10.8,30.19,NW,322,6.0,7.0,56,0.00,,,0.00,Wunderground v.1.15,2013-12-31 00:00:00,
2013-12-30 19:01:00,24.2,10.7,30.19,NW,306,4.0,10.0,56,0.00,,,0.00,Wunderground v.1.15,2013-12-31 00:01:00,
2013-12-30 19:03:00,24.2,10.7,30.19,WNW,297,9.0,14.0,56,0.00,,,0.00,Wunderground v.1.15,2013-12-31 00:03:00,
2013-12-30 19:04:00,24.1,11.0,30.19,West,279,3.0,14.0,57,0.00,,,0.00,Wunderground v.1.15,2013-12-31 00:04:00,
2013-12-30 19:05:00,24.1,11.0,30.19,WNW,286,6.0,14.0,57,0.00,,,0.00,Wunderground v.1.15,2013-12-31 00:05:00,
2013-12-30 19:06:00,24.0,11.0,30.19,West,276,4.0,14.0,57,0.00,,,0.00,Wunderground v.1.15,2013-12-31 00:06:00,
2013-12-30 19:09:00,23.9,10.9,30.19,NW,325,8.0,14.0,57,0.00,,,0.00,Wunderground v.1.15,2013-12-31 00:09:00,
2013-12-30 19:10:00,23.9,10.9,30.19,WNW,293,5.0,11.0,57,0.00,,,0.00,Wunderground v.1.15,2013-12-31 00:10:00,
2013-12-30 19:11:00,23.8,10.8,30.19,WNW,285,8.0,11.0,57,0.00,,,0.00,Wunderground v.1.15,2013-12-31 00:11:00,
2013-12-30 19:14:00,23.7,11.1,30.19,WNW,295,7.0,16.0,58,0.00,,,0.00,Wunderground v.1.15,2013-12-31 00:14:00,
2013-12-30 19:15:00,23.7,11.1,30.19,West,268,4.0,16.0,58,0.00,,,0.00,Wunderground v.1.15,2013-12-31 00:15:00,
2013-12-30 19:16:00,23.7,11.1,30.19,NW,315,10.0,16.0,58,0.00,,,0.00,Wunderground v.1.15,2013-12-31 00:16:00,
2013-12-30 19:17:00,23.6,11.0,30.19,NW,307,5.0,16.0,58,0.00,,,0.00,Wunderground v.1.15,2013-12-31 00:17:00,
2013-12-30 19:19:00,23.6,11.0,30.19,NNE,12,2.0,16.0,58,0.00,,,0.00,Wunderground v.1.15,2013-12-31 00:19:00,
2013-12-30 19:20:00,23.5,10.9,30.19,WNW,295,8.0,8.0,58,0.00,,,0.00,Wunderground v.1.15,2013-12-31 00:20:00,
2013-12-30 19:21:00,23.5,10.9,30.19,WNW,300,7.0,11.0,58,0.00,,,0.00,Wunderground v.1.15,2013-12-31 00:21:00,
2013-12-30 19:22:00,23.5,10.9,30.19,WNW,291,7.0,13.0,58,0.00,,,0.00,Wunderground v.1.15,2013-12-31 00:22:00,
2013-12-30 19:24:00,23.4,10.8,30.19,West,273,9.0,17.0,58,0.00,,,0.00,Wunderground v.1.15,2013-12-31 00:24:00,
2013-12-30 19:25:00,23.4,10.8,30.19,WNW,294,5.0,17.0,58,0.00,,,0.00,Wunderground v.1.15,2013-12-31 00:25:00,
2013-12-30 19:26:00,23.4,11.2,30.19,NW,308,2.0,17.0,59,0.00,,,0.00,Wunderground v.1.15,2013-12-31 00:26:00,
2013-12-30 19:27:00,23.3,11.1,30.19,NW,326,4.0,17.0,59,0.00,,,0.00,Wunderground v.1.15,2013-12-31 00:27:00,
2013-12-30 19:28:00,23.3,11.1,30.19,West,276,7.0,17.0,59,0.00,,,0.00,Wunderground v.1.15,2013-12-31 00:28:00,
2013-12-30 19:29:00,23.3,11.1,30.20,WNW,286,4.0,17.0,59,0.00,,,0.00,Wunderground v.1.15,2013-12-31 00:29:00,
2013-12-30 19:30:00,23.3,11.1,30.20,NW,309,5.0,7.0,59,0.00,,,0.00,Wunderground v.1.15,2013-12-31 00:30:00,
2013-12-30 19:31:00,23.2,11.4,30.20,NW,321,9.0,14.0,60,0.00,,,0.00,Wunderground v.1.15,2013-12-31 00:31:00,
2013-12-30 19:33:00,23.2,11.0,30.20,NW,307,7.0,14.0,59,0.00,,,0.00,Wunderground v.1.15,2013-12-31 00:33:00,
2013-12-30 19:34:00,23.1,10.9,30.20,NNW,344,4.0,16.0,59,0.00,,,0.00,Wunderground v.1.15,2013-12-31 00:34:00,
2013-12-30 19:35:00,23.1,10.9,30.20,NNW,327,10.0,16.0,59,0.00,,,0.00,Wunderground v.1.15,2013-12-31 00:35:00,
2013-12-30 19:36:00,23.1,10.9,30.20,WNW,282,4.0,16.0,59,0.00,,,0.00,Wunderground v.1.15,2013-12-31 00:36:00,
2013-12-30 19:38:00,23.1,10.9,30.20,WNW,290,3.0,16.0,59,0.00,,,0.00,Wunderground v.1.15,2013-12-31 00:38:00,
2013-12-30 19:39:00,23.0,11.2,30.20,West,281,6.0,16.0,60,0.00,,,0.00,Wunderground v.1.15,2013-12-31 00:39:00,
2013-12-30 19:40:00,23.0,11.2,30.21,North,355,4.0,8.0,60,0.00,,,0.00,Wunderground v.1.15,2013-12-31 00:40:00,
2013-12-30 19:41:00,23.0,11.2,30.21,NW,311,2.0,8.0,60,0.00,,,0.00,Wunderground v.1.15,2013-12-31 00:41:00,
2013-12-30 19:42:00,23.0,11.2,30.21,WNW,302,2.0,8.0,60,0.00,,,0.00,Wunderground v.1.15,2013-12-31 00:42:00,
2013-12-30 19:43:00,22.9,11.4,30.21,WNW,289,4.0,8.0,61,0.00,,,0.00,Wunderground v.1.15,2013-12-31 00:43:00,
2013-12-30 19:45:00,22.9,11.4,30.21,SSW,195,0.0,8.0,61,0.00,,,0.00,Wunderground v.1.15,2013-12-31 00:45:00,
2013-12-30 19:47:00,22.8,11.3,30.21,North,351,2.0,8.0,61,0.00,,,0.00,Wunderground v.1.15,2013-12-31 00:47:00,
2013-12-30 19:48:00,22.8,11.3,30.22,NW,309,1.0,8.0,61,0.00,,,0.00,Wunderground v.1.15,2013-12-31 00:48:00,
2013-12-30 19:50:00,22.7,11.3,30.22,WNW,298,7.0,7.0,61,0.00,,,0.00,Wunderground v.1.15,2013-12-31 00:50:00,
2013-12-30 19:52:00,22.6,11.2,30.21,NW,316,4.0,8.0,61,0.00,,,0.00,Wunderground v.1.15,2013-12-31 00:52:00,
2013-12-30 19:53:00,22.6,11.2,30.21,North,355,2.0,8.0,61,0.00,,,0.00,Wunderground v.1.15,2013-12-31 00:53:00,
2013-12-30 19:55:00,22.5,11.1,30.21,WNW,295,4.0,8.0,61,0.00,,,0.00,Wunderground v.1.15,2013-12-31 00:55:00,
2013-12-30 19:57:00,22.5,11.1,30.21,WNW,288,2.0,12.0,61,0.00,,,0.00,Wunderground v.1.15,2013-12-31 00:57:00,
2013-12-30 19:58:00,22.5,11.1,30.21,NW,310,1.0,12.0,61,0.00,,,0.00,Wunderground v.1.15,2013-12-31 00:58:00,
2013-12-30 20:00:00,22.5,11.1,30.22,WNW,300,5.0,5.0,61,0.00,,,0.00,Wunderground v.1.15,2013-12-31 01:00:00,
2013-12-30 20:03:00,22.4,11.3,30.21,West,281,2.0,5.0,62,0.00,,,0.00,Wunderground v.1.15,2013-12-31 01:03:00,
2013-12-30 20:05:00,22.4,11.3,30.21,West,277,3.0,5.0,62,0.00,,,0.00,Wunderground v.1.15,2013-12-31 01:05:00,
2013-12-30 20:06:00,22.3,11.2,30.21,NW,306,3.0,5.0,62,0.00,,,0.00,Wunderground v.1.15,2013-12-31 01:06:00,
2013-12-30 20:08:00,22.3,11.2,30.21,NW,309,4.0,5.0,62,0.00,,,0.00,Wunderground v.1.15,2013-12-31 01:08:00,
2013-12-30 20:09:00,22.3,11.2,30.21,NW,309,2.0,5.0,62,0.00,,,0.00,Wunderground v.1.15,2013-12-31 01:09:00,
2013-12-30 20:10:00,22.2,11.1,30.21,NW,309,3.0,3.0,62,0.00,,,0.00,Wunderground v.1.15,2013-12-31 01:10:00,
2013-12-30 20:13:00,22.2,11.1,30.22,NW,325,4.0,5.0,62,0.00,,,0.00,Wunderground v.1.15,2013-12-31 01:13:00,
2013-12-30 20:14:00,22.2,11.1,30.22,West,281,2.0,5.0,62,0.00,,,0.00,Wunderground v.1.15,2013-12-31 01:14:00,
2013-12-30 20:15:00,22.1,11.1,30.22,WNW,296,3.0,5.0,62,0.00,,,0.00,Wunderground v.1.15,2013-12-31 01:15:00,
2013-12-30 20:16:00,22.1,11.1,30.22,WNW,296,7.0,8.0,62,0.00,,,0.00,Wunderground v.1.15,2013-12-31 01:16:00,
2013-12-30 20:18:00,22.1,11.1,30.22,West,278,3.0,9.0,62,0.00,,,0.00,Wunderground v.1.15,2013-12-31 01:18:00,
2013-12-30 20:19:00,22.0,11.3,30.22,WSW,255,7.0,9.0,63,0.00,,,0.00,Wunderground v.1.15,2013-12-31 01:19:00,
2013-12-30 20:20:00,22.0,11.3,30.22,North,5,4.0,8.0,63,0.00,,,0.00,Wunderground v.1.15,2013-12-31 01:20:00,
2013-12-30 20:21:00,22.0,11.3,30.22,NW,317,6.0,12.0,63,0.00,,,0.00,Wunderground v.1.15,2013-12-31 01:21:00,
2013-12-30 20:23:00,21.9,11.2,30.21,West,275,8.0,13.0,63,0.00,,,0.00,Wunderground v.1.15,2013-12-31 01:23:00,
2013-12-30 20:25:00,21.9,10.9,30.21,NW,315,5.0,13.0,62,0.00,,,0.00,Wunderground v.1.15,2013-12-31 01:25:00,
2013-12-30 20:26:00,21.9,10.9,30.22,NW,322,5.0,13.0,62,0.00,,,0.00,Wunderground v.1.15,2013-12-31 01:26:00,
2013-12-30 20:29:00,21.8,10.8,30.22,NW,310,5.0,13.0,62,0.00,,,0.00,Wunderground v.1.15,2013-12-31 01:29:00,
2013-12-30 20:30:00,21.8,10.8,30.22,WNW,303,10.0,10.0,62,0.00,,,0.00,Wunderground v.1.15,2013-12-31 01:30:00,
2013-12-30 20:31:00,21.8,10.8,30.22,NW,315,5.0,10.0,62,0.00,,,0.00,Wunderground v.1.15,2013-12-31 01:31:00,
2013-12-30 20:34:00,21.7,11.0,30.22,NNW,340,4.0,10.0,63,0.00,,,0.00,Wunderground v.1.15,2013-12-31 01:34:00,
2013-12-30 20:35:00,21.7,11.0,30.22,NW,306,9.0,11.0,63,0.00,,,0.00,Wunderground v.1.15,2013-12-31 01:35:00,
2013-12-30 20:36:00,21.6,10.9,30.21,NW,305,10.0,11.0,63,0.00,,,0.00,Wunderground v.1.15,2013-12-31 01:36:00,
2013-12-30 20:39:00,21.6,10.9,30.21,WNW,284,4.0,11.0,63,0.00,,,0.00,Wunderground v.1.15,2013-12-31 01:39:00,
2013-12-30 20:40:00,21.6,10.9,30.21,NNW,338,6.0,8.0,63,0.00,,,0.00,Wunderground v.1.15,2013-12-31 01:40:00,
2013-12-30 20:41:00,21.6,10.9,30.22,WNW,284,8.0,11.0,63,0.00,,,0.00,Wunderground v.1.15,2013-12-31 01:41:00,
2013-12-30 20:42:00,21.5,10.5,30.22,WNW,290,4.0,11.0,62,0.00,,,0.00,Wunderground v.1.15,2013-12-31 01:42:00,
2013-12-30 20:44:00,21.5,10.5,30.22,NW,304,7.0,11.0,62,0.00,,,0.00,Wunderground v.1.15,2013-12-31 01:44:00,
2013-12-30 20:45:00,21.5,10.5,30.22,NW,308,2.0,11.0,62,0.00,,,0.00,Wunderground v.1.15,2013-12-31 01:45:00,
2013-12-30 20:46:00,21.5,10.8,30.22,NW,309,0.0,11.0,63,0.00,,,0.00,Wunderground v.1.15,2013-12-31 01:46:00,
2013-12-30 20:47:00,21.5,10.8,30.23,West,267,7.0,11.0,63,0.00,,,0.00,Wunderground v.1.15,2013-12-31 01:47:00,
2013-12-30 20:49:00,21.4,10.4,30.23,WNW,300,8.0,11.0,62,0.00,,,0.00,Wunderground v.1.15,2013-12-31 01:49:00,
2013-12-30 20:50:00,21.4,10.7,30.23,West,268,6.0,8.0,63,0.00,,,0.00,Wunderground v.1.15,2013-12-31 01:50:00,
2013-12-30 20:51:00,21.4,10.7,30.23,West,275,6.0,8.0,63,0.00,,,0.00,Wunderground v.1.15,2013-12-31 01:51:00,
2013-12-30 20:52:00,21.3,10.7,30.23,NW,319,9.0,15.0,63,0.00,,,0.00,Wunderground v.1.15,2013-12-31 01:52:00,
2013-12-30 20:55:00,21.3,10.3,30.22,WNW,290,5.0,15.0,62,0.00,,,0.00,Wunderground v.1.15,2013-12-31 01:55:00,
2013-12-30 20:56:00,21.2,10.6,30.23,NW,311,6.0,15.0,63,0.00,,,0.00,Wunderground v.1.15,2013-12-31 01:56:00,
2013-12-30 20:57:00,21.2,10.6,30.23,WNW,296,7.0,15.0,63,0.00,,,0.00,Wunderground v.1.15,2013-12-31 01:57:00,
2013-12-30 21:00:00,21.1,10.5,30.23,WSW,257,5.0,6.0,63,0.00,,,0.00,Wunderground v.1.15,2013-12-31 02:00:00,
2013-12-30 21:01:00,21.1,10.5,30.23,WNW,297,3.0,9.0,63,0.00,,,0.00,Wunderground v.1.15,2013-12-31 02:01:00,
2013-12-30 21:02:00,21.1,10.5,30.23,WNW,284,3.0,9.0,63,0.00,,,0.00,Wunderground v.1.15,2013-12-31 02:02:00,
2013-12-30 21:03:00,21.1,10.5,30.23,West,280,6.0,9.0,63,0.00,,,0.00,Wunderground v.1.15,2013-12-31 02:03:00,
2013-12-30 21:05:00,21.0,10.4,30.23,West,264,4.0,10.0,63,0.00,,,0.00,Wunderground v.1.15,2013-12-31 02:05:00,
2013-12-30 21:06:00,21.0,10.4,30.23,WNW,302,7.0,10.0,63,0.00,,,0.00,Wunderground v.1.15,2013-12-31 02:06:00,
2013-12-30 21:08:00,21.0,10.7,30.23,West,277,9.0,11.0,64,0.00,,,0.00,Wunderground v.1.15,2013-12-31 02:08:00,
2013-12-30 21:10:00,21.0,11.1,30.23,NW,312,8.0,8.0,65,0.00,,,0.00,Wunderground v.1.15,2013-12-31 02:10:00,
2013-12-30 21:11:00,21.0,11.8,30.23,WNW,288,2.0,8.0,67,0.00,,,0.00,Wunderground v.1.15,2013-12-31 02:11:00,
2013-12-30 21:13:00,21.2,11.9,30.24,WNW,286,3.0,14.0,67,0.00,,,0.00,Wunderground v.1.15,2013-12-31 02:13:00,
2013-12-30 21:15:00,21.3,11.7,30.24,WNW,300,4.0,14.0,66,0.00,,,0.00,Wunderground v.1.15,2013-12-31 02:15:00,
2013-12-30 21:16:00,21.3,12.0,30.24,NNW,336,3.0,14.0,67,0.00,,,0.00,Wunderground v.1.15,2013-12-31 02:16:00,
2013-12-30 21:18:00,21.4,12.1,30.24,NW,304,2.0,14.0,67,0.00,,,0.00,Wunderground v.1.15,2013-12-31 02:18:00,
2013-12-30 21:20:00,21.3,12.0,30.24,NW,312,5.0,6.0,67,0.00,,,0.00,Wunderground v.1.15,2013-12-31 02:20:00,
2013-12-30 21:21:00,21.3,12.0,30.24,NW,304,7.0,7.0,67,0.00,,,0.00,Wunderground v.1.15,2013-12-31 02:21:00,
2013-12-30 21:22:00,21.3,12.0,30.24,West,265,6.0,8.0,67,0.00,,,0.00,Wunderground v.1.15,2013-12-31 02:22:00,
2013-12-30 21:23:00,21.5,13.5,30.24,WNW,302,3.0,8.0,71,0.00,,,0.00,Wunderground v.1.15,2013-12-31 02:23:00,
2013-12-30 21:24:00,21.5,13.5,30.24,NW,319,3.0,8.0,71,0.00,,,0.00,Wunderground v.1.15,2013-12-31 02:24:00,
2013-12-30 21:26:00,21.7,14.1,30.24,NW,321,3.0,8.0,72,0.00,,,0.00,Wunderground v.1.15,2013-12-31 02:26:00,
2013-12-30 21:27:00,21.8,13.8,30.24,NW,308,5.0,8.0,71,0.00,,,0.00,Wunderground v.1.15,2013-12-31 02:27:00,
2013-12-30 21:28:00,21.6,12.3,30.24,WNW,301,2.0,10.0,67,0.00,,,0.00,Wunderground v.1.15,2013-12-31 02:28:00,
2013-12-30 21:29:00,21.6,12.3,30.24,WNW,297,3.0,10.0,67,0.00,,,0.00,Wunderground v.1.15,2013-12-31 02:29:00,
2013-12-30 21:31:00,21.3,11.7,30.24,NNW,336,5.0,8.0,66,0.00,,,0.00,Wunderground v.1.15,2013-12-31 02:31:00,
2013-12-30 21:32:00,21.2,11.3,30.24,WNW,301,3.0,9.0,65,0.00,,,0.00,Wunderground v.1.15,2013-12-31 02:32:00,
2013-12-30 21:34:00,21.2,12.3,30.24,NW,323,5.0,9.0,68,0.00,,,0.00,Wunderground v.1.15,2013-12-31 02:34:00,
2013-12-30 21:36:00,21.2,12.3,30.24,WNW,297,7.0,9.0,68,0.00,,,0.00,Wunderground v.1.15,2013-12-31 02:36:00,
2013-12-30 21:37:00,21.2,12.6,30.24,WNW,291,8.0,10.0,69,0.00,,,0.00,Wunderground v.1.15,2013-12-31 02:37:00,
2013-12-30 21:39:00,21.2,12.3,30.25,West,273,2.0,10.0,68,0.00,,,0.00,Wunderground v.1.15,2013-12-31 02:39:00,
2013-12-30 21:41:00,21.1,12.8,30.24,NW,321,11.0,12.0,70,0.00,,,0.00,Wunderground v.1.15,2013-12-31 02:41:00,
2013-12-30 21:42:00,21.1,12.2,30.24,NNW,333,3.0,12.0,68,0.00,,,0.00,Wunderground v.1.15,2013-12-31 02:42:00,
2013-12-30 21:43:00,21.1,11.8,30.24,West,280,4.0,12.0,67,0.00,,,0.00,Wunderground v.1.15,2013-12-31 02:43:00,
2013-12-30 21:44:00,21.1,12.5,30.24,NNW,337,2.0,12.0,69,0.00,,,0.00,Wunderground v.1.15,2013-12-31 02:44:00,
2013-12-30 21:45:00,21.1,12.5,30.24,NNW,337,1.0,12.0,69,0.00,,,0.00,Wunderground v.1.15,2013-12-31 02:45:00,
2013-12-30 21:47:00,21.3,13.7,30.24,WNW,297,5.0,12.0,72,0.00,,,0.00,Wunderground v.1.15,2013-12-31 02:47:00,
2013-12-30 21:48:00,21.2,12.9,30.24,WNW,292,4.0,12.0,70,0.00,,,0.00,Wunderground v.1.15,2013-12-31 02:48:00,
2013-12-30 21:50:00,20.9,11.3,30.24,NNW,332,3.0,5.0,66,0.00,,,0.00,Wunderground v.1.15,2013-12-31 02:50:00,
2013-12-30 21:53:00,20.6,10.7,30.24,NNW,327,6.0,10.0,65,0.00,,,0.00,Wunderground v.1.15,2013-12-31 02:53:00,
2013-12-30 21:54:00,20.5,10.6,30.24,NW,318,1.0,10.0,65,0.00,,,0.00,Wunderground v.1.15,2013-12-31 02:54:00,
2013-12-30 21:55:00,20.4,10.5,30.24,NW,306,4.0,10.0,65,0.00,,,0.00,Wunderground v.1.15,2013-12-31 02:55:00,
2013-12-30 21:58:00,20.4,10.8,30.25,NNW,327,5.0,10.0,66,0.00,,,0.00,Wunderground v.1.15,2013-12-31 02:58:00,
2013-12-30 21:59:00,20.3,10.4,30.25,NW,317,0.0,10.0,65,0.00,,,0.00,Wunderground v.1.15,2013-12-31 02:59:00,
2013-12-30 22:00:00,20.3,10.4,30.25,WNW,300,2.0,4.0,65,0.00,,,0.00,Wunderground v.1.15,2013-12-31 03:00:00,
2013-12-30 22:03:00,20.2,10.3,30.25,WNW,294,2.0,5.0,65,0.00,,,0.00,Wunderground v.1.15,2013-12-31 03:03:00,
2013-12-30 22:04:00,20.2,10.3,30.25,WNW,294,0.0,5.0,65,0.00,,,0.00,Wunderground v.1.15,2013-12-31 03:04:00,
2013-12-30 22:05:00,20.1,10.6,30.25,WNW,294,0.0,5.0,66,0.00,,,0.00,Wunderground v.1.15,2013-12-31 03:05:00,
2013-12-30 22:06:00,20.1,10.6,30.25,WNW,294,0.0,5.0,66,0.00,,,0.00,Wunderground v.1.15,2013-12-31 03:06:00,
2013-12-30 22:08:00,20.0,10.5,30.25,NNW,335,4.0,8.0,66,0.00,,,0.00,Wunderground v.1.15,2013-12-31 03:08:00,
2013-12-30 22:09:00,20.0,10.5,30.25,NW,308,4.0,8.0,66,0.00,,,0.00,Wunderground v.1.15,2013-12-31 03:09:00,
2013-12-30 22:10:00,20.0,10.1,30.25,West,277,2.0,6.0,65,0.00,,,0.00,Wunderground v.1.15,2013-12-31 03:10:00,
2013-12-30 22:11:00,20.0,10.1,30.25,WNW,294,8.0,8.0,65,0.00,,,0.00,Wunderground v.1.15,2013-12-31 03:11:00,
2013-12-30 22:13:00,19.9,10.4,30.24,NW,320,5.0,8.0,66,0.00,,,0.00,Wunderground v.1.15,2013-12-31 03:13:00,
2013-12-30 22:14:00,19.9,10.4,30.24,WNW,300,4.0,8.0,66,0.00,,,0.00,Wunderground v.1.15,2013-12-31 03:14:00,
2013-12-30 22:15:00,19.8,10.3,30.24,WNW,292,3.0,8.0,66,0.00,,,0.00,Wunderground v.1.15,2013-12-31 03:15:00,
2013-12-30 22:16:00,19.8,10.3,30.24,NW,304,1.0,8.0,66,0.00,,,0.00,Wunderground v.1.15,2013-12-31 03:16:00,
2013-12-30 22:18:00,19.8,10.3,30.24,WNW,288,2.0,8.0,66,0.00,,,0.00,Wunderground v.1.15,2013-12-31 03:18:00,
2013-12-30 22:19:00,19.7,10.2,30.24,WNW,288,2.0,8.0,66,0.00,,,0.00,Wunderground v.1.15,2013-12-31 03:19:00,
2013-12-30 22:20:00,19.7,10.2,30.24,WNW,289,1.0,3.0,66,0.00,,,0.00,Wunderground v.1.15,2013-12-31 03:20:00,
2013-12-30 22:21:00,19.7,10.2,30.24,NW,304,1.0,7.0,66,0.00,,,0.00,Wunderground v.1.15,2013-12-31 03:21:00,
2013-12-30 22:23:00,19.7,10.2,30.24,NW,304,0.0,7.0,66,0.00,,,0.00,Wunderground v.1.15,2013-12-31 03:23:00,
2013-12-30 22:24:00,19.7,10.2,30.24,NW,304,0.0,7.0,66,0.00,,,0.00,Wunderground v.1.15,2013-12-31 03:24:00,
2013-12-30 22:25:00,19.7,10.5,30.24,NW,304,0.0,7.0,67,0.00,,,0.00,Wunderground v.1.15,2013-12-31 03:25:00,
2013-12-30 22:26:00,19.6,10.4,30.24,NW,304,0.0,7.0,67,0.00,,,0.00,Wunderground v.1.15,2013-12-31 03:26:00,
2013-12-30 22:28:00,19.6,10.4,30.24,NW,307,1.0,7.0,67,0.00,,,0.00,Wunderground v.1.15,2013-12-31 03:28:00,
2013-12-30 22:29:00,19.7,10.5,30.24,NW,305,3.0,7.0,67,0.00,,,0.00,Wunderground v.1.15,2013-12-31 03:29:00,
2013-12-30 22:30:00,19.6,10.4,30.24,WNW,298,1.0,1.0,67,0.00,,,0.00,Wunderground v.1.15,2013-12-31 03:30:00,
2013-12-30 22:31:00,19.6,10.4,30.24,NW,309,3.0,3.0,67,0.00,,,0.00,Wunderground v.1.15,2013-12-31 03:31:00,
2013-12-30 22:32:00,19.5,10.3,30.24,NW,311,1.0,3.0,67,0.00,,,0.00,Wunderground v.1.15,2013-12-31 03:32:00,
2013-12-30 22:33:00,19.5,10.3,30.24,NW,311,1.0,3.0,67,0.00,,,0.00,Wunderground v.1.15,2013-12-31 03:33:00,
2013-12-30 22:34:00,19.5,10.3,30.24,NW,311,0.0,3.0,67,0.00,,,0.00,Wunderground v.1.15,2013-12-31 03:34:00,
2013-12-30 22:36:00,19.4,10.2,30.24,NW,311,0.0,3.0,67,0.00,,,0.00,Wunderground v.1.15,2013-12-31 03:36:00,
2013-12-30 22:37:00,19.3,10.1,30.24,NW,311,0.0,3.0,67,0.00,,,0.00,Wunderground v.1.15,2013-12-31 03:37:00,
2013-12-30 22:38:00,19.3,10.1,30.24,NW,311,2.0,3.0,67,0.00,,,0.00,Wunderground v.1.15,2013-12-31 03:38:00,
2013-12-30 22:39:00,19.3,10.5,30.24,NW,311,2.0,3.0,68,0.00,,,0.00,Wunderground v.1.15,2013-12-31 03:39:00,
2013-12-30 22:41:00,19.2,10.0,30.25,NW,311,0.0,2.0,67,0.00,,,0.00,Wunderground v.1.15,2013-12-31 03:41:00,
2013-12-30 22:42:00,19.2,10.0,30.25,NW,311,2.0,2.0,67,0.00,,,0.00,Wunderground v.1.15,2013-12-31 03:42:00,
2013-12-30 22:44:00,19.1,10.3,30.25,NW,311,2.0,2.0,68,0.00,,,0.00,Wunderground v.1.15,2013-12-31 03:44:00,
2013-12-30 22:47:00,18.9,10.4,30.25,NW,311,1.0,2.0,69,0.00,,,0.00,Wunderground v.1.15,2013-12-31 03:47:00,
2013-12-30 22:49:00,18.8,10.3,30.24,NW,311,2.0,3.0,69,0.00,,,0.00,Wunderground v.1.15,2013-12-31 03:49:00,
2013-12-30 22:50:00,18.8,10.3,30.24,NW,311,1.0,1.0,69,0.00,,,0.00,Wunderground v.1.15,2013-12-31 03:50:00,
2013-12-30 22:52:00,18.7,10.2,30.25,NW,311,1.0,3.0,69,0.00,,,0.00,Wunderground v.1.15,2013-12-31 03:52:00,
2013-12-30 22:53:00,18.7,10.2,30.25,NW,311,0.0,3.0,69,0.00,,,0.00,Wunderground v.1.15,2013-12-31 03:53:00,
2013-12-30 22:54:00,18.7,10.2,30.25,NW,311,2.0,3.0,69,0.00,,,0.00,Wunderground v.1.15,2013-12-31 03:54:00,
2013-12-30 22:55:00,18.7,10.5,30.25,NW,311,1.0,3.0,70,0.00,,,0.00,Wunderground v.1.15,2013-12-31 03:55:00,
2013-12-30 22:57:00,18.6,10.4,30.25,NW,311,1.0,3.0,70,0.00,,,0.00,Wunderground v.1.15,2013-12-31 03:57:00,
2013-12-30 22:58:00,18.6,10.4,30.25,NW,311,0.0,3.0,70,0.00,,,0.00,Wunderground v.1.15,2013-12-31 03:58:00,
2013-12-30 22:59:00,18.6,10.4,30.25,NW,311,0.0,3.0,70,0.00,,,0.00,Wunderground v.1.15,2013-12-31 03:59:00,
2013-12-30 23:00:00,18.6,10.4,30.25,NW,311,1.0,1.0,70,0.00,,,0.00,Wunderground v.1.15,2013-12-31 04:00:00,
2013-12-30 23:02:00,18.6,10.4,30.25,NW,311,1.0,3.0,70,0.00,,,0.00,Wunderground v.1.15,2013-12-31 04:02:00,
2013-12-30 23:03:00,18.6,10.8,30.25,NW,311,0.0,3.0,71,0.00,,,0.00,Wunderground v.1.15,2013-12-31 04:03:00,
2013-12-30 23:04:00,18.6,10.8,30.25,NW,311,1.0,3.0,71,0.00,,,0.00,Wunderground v.1.15,2013-12-31 04:04:00,
2013-12-30 23:05:00,18.5,10.3,30.25,NW,311,1.0,3.0,70,0.00,,,0.00,Wunderground v.1.15,2013-12-31 04:05:00,
2013-12-30 23:06:00,18.5,10.3,30.25,NW,311,2.0,3.0,70,0.00,,,0.00,Wunderground v.1.15,2013-12-31 04:06:00,
2013-12-30 23:07:00,18.5,10.7,30.25,NW,311,1.0,3.0,71,0.00,,,0.00,Wunderground v.1.15,2013-12-31 04:07:00,
2013-12-30 23:08:00,18.5,10.7,30.25,NW,311,1.0,3.0,71,0.00,,,0.00,Wunderground v.1.15,2013-12-31 04:08:00,
2013-12-30 23:09:00,18.5,10.7,30.25,NW,311,1.0,3.0,71,0.00,,,0.00,Wunderground v.1.15,2013-12-31 04:09:00,
2013-12-30 23:11:00,18.5,10.7,30.25,NW,311,1.0,3.0,71,0.00,,,0.00,Wunderground v.1.15,2013-12-31 04:11:00,
2013-12-30 23:13:00,18.4,10.6,30.25,NW,308,0.0,4.0,71,0.00,,,0.00,Wunderground v.1.15,2013-12-31 04:13:00,
2013-12-30 23:14:00,18.4,10.6,30.25,NW,308,2.0,5.0,71,0.00,,,0.00,Wunderground v.1.15,2013-12-31 04:14:00,
2013-12-30 23:15:00,18.4,10.6,30.25,NW,308,2.0,5.0,71,0.00,,,0.00,Wunderground v.1.15,2013-12-31 04:15:00,
2013-12-30 23:16:00,18.3,10.1,30.25,NW,308,3.0,5.0,70,0.00,,,0.00,Wunderground v.1.15,2013-12-31 04:16:00,
2013-12-30 23:18:00,19.5,14.0,30.25,NW,308,2.0,5.0,79,0.00,,,0.00,Wunderground v.1.15,2013-12-31 04:18:00,
2013-12-30 23:19:00,20.0,14.5,30.25,NW,308,1.0,5.0,79,0.00,,,0.00,Wunderground v.1.15,2013-12-31 04:19:00,
2013-12-30 23:20:00,20.7,16.9,30.25,WNW,301,1.0,4.0,85,0.00,,,0.00,Wunderground v.1.15,2013-12-31 04:20:00,
2013-12-30 23:21:00,21.4,17.6,30.25,WNW,301,0.0,4.0,85,0.00,,,0.00,Wunderground v.1.15,2013-12-31 04:21:00,
2013-12-30 23:22:00,21.5,18.0,30.25,WNW,301,1.0,4.0,86,0.00,,,0.00,Wunderground v.1.15,2013-12-31 04:22:00,
2013-12-30 23:24:00,21.6,18.1,30.25,WNW,301,1.0,4.0,86,0.00,,,0.00,Wunderground v.1.15,2013-12-31 04:24:00,
2013-12-30 23:25:00,21.8,18.3,30.25,WNW,301,1.0,4.0,86,0.00,,,0.00,Wunderground v.1.15,2013-12-31 04:25:00,
2013-12-30 23:26:00,21.2,17.4,30.25,WNW,301,2.0,4.0,85,0.00,,,0.00,Wunderground v.1.15,2013-12-31 04:26:00,
2013-12-30 23:27:00,21.2,17.1,30.25,WNW,302,4.0,4.0,84,0.00,,,0.00,Wunderground v.1.15,2013-12-31 04:27:00,
2013-12-30 23:29:00,20.3,14.8,30.25,WNW,302,0.0,4.0,79,0.00,,,0.00,Wunderground v.1.15,2013-12-31 04:29:00,
2013-12-30 23:30:00,20.0,13.9,30.25,WNW,302,2.0,3.0,77,0.00,,,0.00,Wunderground v.1.15,2013-12-31 04:30:00,
2013-12-30 23:31:00,19.8,13.2,30.25,WNW,302,0.0,3.0,75,0.00,,,0.00,Wunderground v.1.15,2013-12-31 04:31:00,
2013-12-30 23:32:00,19.5,12.6,30.25,WNW,302,0.0,3.0,74,0.00,,,0.00,Wunderground v.1.15,2013-12-31 04:32:00,
2013-12-30 23:34:00,19.3,12.1,30.25,WNW,302,1.0,3.0,73,0.00,,,0.00,Wunderground v.1.15,2013-12-31 04:34:00,
2013-12-30 23:35:00,19.1,11.9,30.26,WNW,302,2.0,3.0,73,0.00,,,0.00,Wunderground v.1.15,2013-12-31 04:35:00,
2013-12-30 23:36:00,19.0,11.8,30.25,WNW,302,0.0,3.0,73,0.00,,,0.00,Wunderground v.1.15,2013-12-31 04:36:00,
2013-12-30 23:37:00,18.9,11.7,30.25,WNW,302,1.0,3.0,73,0.00,,,0.00,Wunderground v.1.15,2013-12-31 04:37:00,
2013-12-30 23:39:00,18.8,11.6,30.25,WNW,302,1.0,3.0,73,0.00,,,0.00,Wunderground v.1.15,2013-12-31 04:39:00,
2013-12-30 23:40:00,18.7,11.5,30.25,WNW,302,0.0,1.0,73,0.00,,,0.00,Wunderground v.1.15,2013-12-31 04:40:00,
2013-12-30 23:42:00,18.6,11.4,30.25,WNW,302,3.0,3.0,73,0.00,,,0.00,Wunderground v.1.15,2013-12-31 04:42:00,
2013-12-30 23:43:00,18.5,11.3,30.25,WNW,302,1.0,3.0,73,0.00,,,0.00,Wunderground v.1.15,2013-12-31 04:43:00,
2013-12-30 23:44:00,18.5,11.3,30.25,WNW,302,0.0,3.0,73,0.00,,,0.00,Wunderground v.1.15,2013-12-31 04:44:00,
2013-12-30 23:45:00,18.4,11.2,30.25,WNW,302,0.0,3.0,73,0.00,,,0.00,Wunderground v.1.15,2013-12-31 04:45:00,
2013-12-30 23:47:00,18.3,11.1,30.25,WNW,302,1.0,3.0,73,0.00,,,0.00,Wunderground v.1.15,2013-12-31 04:47:00,
2013-12-30 23:48:00,18.3,11.4,30.25,WNW,302,2.0,3.0,74,0.00,,,0.00,Wunderground v.1.15,2013-12-31 04:48:00,
2013-12-30 23:49:00,18.3,11.1,30.25,WNW,302,0.0,3.0,73,0.00,,,0.00,Wunderground v.1.15,2013-12-31 04:49:00,
2013-12-30 23:50:00,18.3,11.1,30.25,WNW,302,1.0,4.0,73,0.00,,,0.00,Wunderground v.1.15,2013-12-31 04:50:00,
2013-12-30 23:52:00,18.2,11.0,30.24,WNW,302,4.0,4.0,73,0.00,,,0.00,Wunderground v.1.15,2013-12-31 04:52:00,
2013-12-30 23:53:00,18.1,10.9,30.24,WNW,303,0.0,4.0,73,0.00,,,0.00,Wunderground v.1.15,2013-12-31 04:53:00,
2013-12-30 23:54:00,18.0,10.5,30.24,NW,306,0.0,5.0,72,0.00,,,0.00,Wunderground v.1.15,2013-12-31 04:54:00,
2013-12-30 23:55:00,18.0,10.5,30.24,NW,306,0.0,5.0,72,0.00,,,0.00,Wunderground v.1.15,2013-12-31 04:55:00,
2013-12-30 23:57:00,17.9,10.7,30.23,NW,306,1.0,5.0,73,0.00,,,0.00,Wunderground v.1.15,2013-12-31 04:57:00,
2013-12-30 23:58:00,17.9,10.7,30.23,NW,306,2.0,5.0,73,0.00,,,0.00,Wunderground v.1.15,2013-12-31 04:58:00,
2013-12-30 23:59:00,17.8,10.6,30.23,WNW,300,1.0,6.0,73,0.00,,,0.00,Wunderground v.1.15,2013-12-31 04:59:00,